GEFSSGP_prec_meanprecacc_336.txt.gz
Total_Precipitation_Accumulation
0.11 0.25 0.61 1.00 1.66 2.35 2.06 1.39 0.81 0.63 0.56 0.66 0.75 0.72 0.81 0.93 1.33 2.07 2.13 1.88 1.63 1.82 2.15 2.60 2.75 2.33 2.07 2.07 2.05 2.11 2.26 2.24 2.26 2.33 2.38 2.45 2.64 2.89 3.09 3.09 2.86 2.71 2.60 2.49 2.63 2.74 2.60 2.47 2.23
0.21 0.46 0.78 1.20 2.03 2.31 1.82 1.54 0.79 0.61 0.58 0.61 0.65 0.71 0.76 0.69 0.66 1.13 1.87 1.75 1.49 1.58 1.77 2.15 2.52 2.22 1.91 1.97 2.01 2.14 2.19 2.15 2.18 2.26 2.34 2.51 2.79 2.99 2.99 2.80 2.63 2.57 2.43 2.34 2.36 2.47 2.33 2.07 1.92
0.30 0.58 0.88 1.28 1.42 1.43 1.18 1.01 0.65 0.58 0.55 0.65 0.69 0.66 0.68 0.91 0.88 1.24 1.57 1.43 1.48 1.55 1.71 2.19 2.48 2.30 2.10 2.07 2.14 2.12 2.06 2.06 2.20 2.37 2.56 2.84 2.89 2.91 2.76 2.55 2.41 2.29 2.15 2.15 2.17 2.32 2.25 2.02 1.92
0.34 0.62 0.84 0.90 0.76 0.69 0.62 0.55 0.41 0.50 0.47 0.56 0.66 0.66 0.80 0.93 0.88 1.20 1.40 1.44 1.46 1.59 1.76 2.03 2.28 2.21 2.14 2.00 2.00 2.10 2.18 2.23 2.37 2.37 2.52 2.72 2.69 2.70 2.54 2.28 2.13 2.05 1.91 1.91 2.06 2.26 2.27 2.06 1.97
0.41 0.68 0.87 0.73 0.54 0.51 0.50 0.43 0.38 0.47 0.45 0.59 0.72 0.89 1.15 1.14 0.97 1.24 1.42 1.43 1.41 1.48 1.69 1.81 2.16 2.31 2.24 2.13 2.16 2.21 2.23 2.30 2.35 2.28 2.36 2.40 2.44 2.48 2.29 2.02 1.97 1.94 1.75 1.75 2.09 2.30 2.23 1.97 1.89
0.47 0.69 0.64 0.49 0.46 0.44 0.43 0.34 0.32 0.41 0.50 0.59 0.77 1.06 1.51 1.60 1.35 1.30 1.31 1.23 1.31 1.45 1.59 1.72 2.08 2.32 2.39 2.30 2.31 2.28 2.30 2.40 2.32 2.22 2.26 2.17 2.04 2.14 2.06 1.85 1.84 1.83 1.79 1.93 2.22 2.30 2.11 1.91 1.88
0.57 0.67 0.43 0.30 0.34 0.40 0.38 0.28 0.28 0.32 0.46 0.69 0.87 1.16 1.69 2.08 1.72 1.38 1.35 1.40 1.54 1.51 1.57 1.87 2.13 2.15 2.18 2.43 2.43 2.40 2.37 2.47 2.43 2.27 2.19 2.05 1.85 1.81 1.76 1.81 1.87 1.81 1.97 2.19 2.39 2.35 2.18 1.94 1.94
0.28 0.33 0.30 0.25 0.21 0.33 0.35 0.26 0.25 0.32 0.42 0.62 0.80 1.10 1.75 1.79 1.51 1.44 1.67 1.79 1.95 1.81 1.68 1.85 2.01 1.92 1.85 1.99 2.27 2.31 2.19 2.17 2.22 2.23 2.12 2.16 2.08 1.90 1.86 1.84 1.90 1.98 2.11 2.46 2.61 2.51 2.34 2.04 2.01
0.16 0.23 0.22 0.18 0.16 0.24 0.25 0.24 0.26 0.29 0.37 0.61 0.79 1.05 1.39 1.34 1.28 1.34 1.93 2.13 2.19 2.04 1.93 1.83 1.75 1.71 1.70 1.62 1.88 2.15 2.21 2.18 2.22 2.26 2.20 2.26 2.36 2.12 2.15 2.09 2.34 2.43 2.42 2.73 2.96 2.97 2.69 2.36 2.20
0.12 0.14 0.11 0.09 0.11 0.16 0.21 0.27 0.27 0.32 0.53 0.93 1.25 1.29 1.25 1.25 1.38 1.59 2.04 2.05 2.21 2.27 2.03 1.96 1.86 1.67 1.49 1.46 1.77 2.12 2.00 2.10 2.26 2.43 2.36 2.43 2.68 2.75 2.22 2.48 2.95 3.11 3.14 3.27 3.47 3.53 2.97 2.48 2.30
0.08 0.10 0.07 0.08 0.12 0.16 0.19 0.27 0.30 0.36 0.79 1.26 1.72 1.56 1.37 1.48 1.60 1.86 2.28 2.51 2.49 2.60 2.34 2.24 2.07 1.80 1.54 1.69 1.60 1.82 2.05 2.28 2.43 2.42 2.42 2.53 2.41 2.35 2.33 2.70 3.19 3.39 3.39 3.37 3.57 3.48 2.93 2.90 3.02
0.06 0.08 0.10 0.13 0.15 0.18 0.24 0.29 0.36 0.47 0.76 0.89 1.12 1.37 1.50 1.68 1.92 2.18 2.36 2.60 2.61 2.72 2.59 2.63 2.30 2.17 2.19 1.98 1.68 1.58 1.65 1.89 2.23 2.55 2.50 2.63 2.91 2.92 2.84 3.01 3.12 3.35 3.54 3.84 3.57 3.61 3.42 3.36 3.19
0.05 0.08 0.11 0.13 0.14 0.17 0.22 0.25 0.37 0.52 0.60 0.66 0.97 1.34 1.68 1.81 2.09 2.40 2.50 2.79 2.69 2.68 2.71 2.80 2.64 2.47 2.52 2.26 2.01 1.78 1.91 1.93 2.06 2.33 2.57 2.67 3.07 3.36 3.29 3.21 3.25 3.24 3.22 3.36 3.42 3.32 3.61 3.78 3.37
0.04 0.07 0.08 0.10 0.13 0.16 0.20 0.26 0.37 0.53 0.65 0.82 1.05 1.34 1.67 1.98 2.19 2.35 2.78 2.95 3.01 2.93 3.00 2.85 2.83 2.81 2.77 2.65 2.58 2.49 2.23 2.33 2.29 2.34 2.42 2.61 3.04 3.46 3.58 3.45 3.37 3.16 3.05 3.13 3.25 3.38 3.81 3.78 3.61
0.06 0.10 0.11 0.13 0.15 0.16 0.24 0.43 0.57 0.70 0.74 0.89 1.09 1.25 1.61 2.14 2.38 2.41 2.76 2.92 2.86 3.25 3.31 3.32 3.29 3.43 3.38 3.20 3.07 2.84 2.63 2.51 2.54 2.67 2.76 2.73 2.91 3.28 3.29 3.14 3.01 2.97 3.03 3.22 3.24 3.43 3.63 3.34 3.37
0.08 0.20 0.26 0.23 0.20 0.19 0.30 0.67 0.75 0.82 0.79 0.98 1.17 1.34 1.66 1.98 2.31 2.45 2.75 2.95 3.04 3.43 3.63 3.81 3.76 3.81 3.66 3.66 3.62 3.33 3.08 2.91 2.78 2.75 2.81 2.66 2.69 2.87 3.18 2.98 2.86 3.14 3.12 3.25 3.54 3.69 3.63 3.60 3.63
0.14 0.18 0.23 0.24 0.18 0.18 0.26 0.57 0.71 0.85 1.05 1.21 1.39 1.54 1.59 1.88 2.20 2.55 2.83 3.18 3.46 3.82 4.12 4.35 4.36 4.23 3.96 3.99 3.95 3.77 3.63 3.34 2.99 2.83 2.77 2.65 2.65 2.80 3.15 3.18 3.27 3.30 3.42 3.45 3.26 3.70 3.78 3.70 3.73
0.14 0.16 0.20 0.22 0.18 0.19 0.35 0.59 0.69 0.90 1.16 1.20 1.46 1.63 1.71 1.78 2.23 2.69 2.90 3.31 3.78 4.30 4.72 4.59 4.56 4.77 4.63 4.47 4.35 4.06 3.60 3.17 3.02 2.99 2.82 2.69 2.77 2.89 3.33 3.21 3.19 3.25 3.46 3.57 3.53 3.68 3.73 3.47 3.45
0.09 0.13 0.18 0.21 0.18 0.23 0.39 0.64 0.91 1.06 1.36 1.31 1.33 1.50 1.63 1.75 2.06 2.49 2.80 3.33 3.93 4.37 4.78 4.96 5.01 4.91 4.74 4.40 4.09 3.86 3.61 3.40 3.14 2.95 2.85 2.77 2.70 2.91 3.40 3.19 3.47 3.40 3.42 3.47 3.51 3.67 3.58 3.27 3.46
0.10 0.14 0.17 0.22 0.21 0.29 0.49 0.71 1.03 1.04 1.12 1.19 1.11 1.19 1.39 1.74 2.01 2.53 2.85 3.05 3.48 4.01 4.47 4.80 4.98 4.86 4.47 4.13 3.98 3.88 3.83 3.43 3.15 3.13 3.26 3.07 3.08 3.13 3.18 3.42 3.37 3.41 3.58 3.54 3.51 3.68 3.45 3.08 3.35
0.13 0.15 0.17 0.17 0.23 0.41 0.55 1.02 1.27 1.12 1.07 1.09 1.10 1.20 1.39 1.83 2.30 2.59 2.80 2.92 3.17 3.57 3.87 3.98 4.17 4.13 3.97 4.02 4.05 4.02 4.04 3.63 3.56 3.57 3.57 3.36 3.35 3.36 3.36 3.35 3.27 3.29 3.13 3.24 3.33 3.36 3.37 3.30 3.23
0.16 0.14 0.12 0.14 0.25 0.52 0.61 1.29 1.68 1.39 1.25 1.34 1.39 1.37 1.64 1.93 1.98 2.20 2.49 2.76 2.93 3.16 3.47 3.69 3.75 3.70 3.63 3.75 3.83 3.74 3.56 3.45 3.61 3.89 3.82 3.54 3.32 3.19 3.01 2.96 3.14 3.16 2.96 3.03 2.68 2.86 3.07 3.07 2.92
0.13 0.13 0.14 0.19 0.29 0.51 0.65 1.02 1.56 1.52 1.64 1.61 1.49 1.55 1.82 1.81 1.71 1.84 2.05 2.38 2.50 2.83 3.11 3.31 3.56 3.65 3.59 3.67 3.67 3.71 3.55 3.54 3.60 3.61 3.67 3.47 3.28 2.97 2.63 2.66 2.89 2.85 2.75 2.66 2.56 2.76 2.61 2.53 2.61
0.12 0.16 0.26 0.35 0.50 0.89 0.72 0.80 1.37 1.50 1.42 1.41 1.40 1.38 1.55 1.51 1.49 1.72 1.90 2.20 2.37 2.50 2.64 2.74 2.96 3.22 3.40 3.44 3.41 3.46 3.42 3.41 3.38 3.37 3.27 3.07 2.91 2.71 2.40 2.29 2.47 2.58 2.62 2.57 2.53 2.61 2.51 2.55 2.69
0.11 0.25 0.70 1.08 1.25 1.24 0.66 0.78 1.29 1.20 1.12 1.12 1.24 1.28 1.29 1.23 1.22 1.46 1.63 1.80 2.02 2.13 2.25 2.39 2.67 3.01 3.10 3.06 3.02 3.13 3.21 3.23 3.18 3.16 3.02 2.81 2.58 2.36 2.30 2.29 2.39 2.41 2.47 2.35 2.39 2.44 2.48 2.67 2.76
0.14 0.22 0.62 0.95 1.04 1.03 0.83 1.22 1.62 1.18 1.03 1.05 1.14 1.16 1.09 1.02 0.98 1.13 1.40 1.72 1.90 1.89 1.96 2.12 2.42 2.68 2.71 2.64 2.79 3.05 3.12 3.16 3.09 3.13 2.81 2.56 2.37 2.31 2.39 2.36 2.21 2.16 2.26 2.14 2.42 2.34 2.41 2.65 2.73
0.16 0.19 0.28 0.46 0.55 0.84 1.09 1.36 1.35 0.86 0.80 0.88 0.96 1.00 1.11 1.07 0.99 1.07 1.17 1.40 1.53 1.60 1.67 1.82 2.24 2.51 2.60 2.68 2.80 2.92 3.03 3.00 2.97 2.89 2.62 2.36 2.37 2.32 2.44 2.38 2.27 2.17 2.27 2.38 2.66 2.61 2.55 2.77 2.77
0.16 0.19 0.24 0.35 0.60 0.92 1.14 1.42 1.51 1.06 0.85 0.65 0.63 0.74 0.81 0.83 0.84 0.92 0.97 1.09 1.20 1.38 1.65 1.84 1.98 2.28 2.39 2.48 2.63 2.66 2.90 2.82 2.67 2.63 2.41 2.16 2.06 2.12 2.30 2.42 2.35 2.27 2.32 2.51 2.71 2.70 2.84 3.01 3.04
0.18 0.18 0.19 0.26 0.39 0.69 1.20 1.39 1.04 0.85 0.71 0.67 0.67 0.77 0.80 0.78 0.75 0.81 0.94 1.08 1.18 1.32 1.54 1.67 1.70 1.89 2.05 2.18 2.39 2.39 2.41 2.48 2.55 2.38 2.11 2.01 2.01 2.07 2.14 2.32 2.39 2.34 2.39 2.52 2.59 2.55 2.86 3.00 3.03
0.18 0.16 0.19 0.26 0.27 0.40 0.74 1.02 0.72 0.75 0.73 0.66 0.73 0.84 0.91 0.88 0.81 0.86 1.03 1.16 1.24 1.38 1.43 1.48 1.55 1.76 1.94 2.12 2.33 2.39 2.37 2.41 2.45 2.30 2.10 2.04 2.06 2.11 2.11 2.23 2.28 2.18 2.20 2.42 2.44 2.48 2.76 2.93 2.82

GEFSSGP_prec_meanprecacc_342.txt.gz
Total_Precipitation_Accumulation
0.12 0.29 0.71 1.18 1.79 2.42 2.13 1.46 0.85 0.64 0.56 0.66 0.75 0.73 0.82 0.95 1.34 2.10 2.19 1.95 1.65 1.83 2.17 2.65 2.81 2.38 2.13 2.13 2.15 2.24 2.40 2.39 2.42 2.46 2.47 2.52 2.73 2.95 3.14 3.14 2.90 2.75 2.66 2.56 2.72 2.83 2.71 2.60 2.39
0.23 0.52 0.95 1.42 2.14 2.40 1.88 1.60 0.81 0.61 0.58 0.62 0.66 0.71 0.76 0.69 0.68 1.17 1.93 1.79 1.50 1.59 1.78 2.18 2.57 2.26 1.96 2.05 2.12 2.27 2.35 2.31 2.31 2.37 2.43 2.56 2.84 3.03 3.02 2.84 2.68 2.62 2.49 2.39 2.46 2.63 2.49 2.22 2.10
0.35 0.67 1.01 1.46 1.53 1.50 1.24 1.05 0.66 0.58 0.55 0.66 0.70 0.68 0.68 0.92 0.90 1.27 1.62 1.45 1.49 1.56 1.73 2.23 2.52 2.36 2.19 2.16 2.23 2.21 2.17 2.17 2.33 2.48 2.64 2.90 2.94 2.95 2.80 2.62 2.47 2.35 2.21 2.21 2.28 2.49 2.39 2.16 2.06
0.41 0.74 0.99 1.04 0.88 0.76 0.66 0.56 0.42 0.50 0.47 0.57 0.67 0.67 0.82 0.95 0.90 1.23 1.43 1.45 1.47 1.61 1.79 2.09 2.34 2.29 2.22 2.07 2.05 2.15 2.24 2.30 2.45 2.46 2.59 2.78 2.75 2.77 2.63 2.35 2.19 2.11 1.97 1.97 2.13 2.37 2.43 2.21 2.08
0.52 0.83 1.03 0.83 0.63 0.59 0.52 0.43 0.38 0.47 0.46 0.60 0.73 0.91 1.17 1.17 1.00 1.27 1.45 1.44 1.41 1.49 1.71 1.87 2.20 2.36 2.31 2.18 2.22 2.27 2.30 2.35 2.40 2.34 2.41 2.45 2.48 2.52 2.31 2.05 2.02 1.99 1.80 1.79 2.16 2.41 2.37 2.07 1.96
0.56 0.81 0.75 0.56 0.54 0.48 0.44 0.35 0.32 0.42 0.50 0.60 0.79 1.09 1.55 1.64 1.38 1.33 1.33 1.23 1.32 1.45 1.60 1.74 2.10 2.35 2.44 2.35 2.38 2.36 2.36 2.44 2.37 2.28 2.31 2.23 2.09 2.18 2.09 1.89 1.90 1.91 1.87 2.04 2.35 2.41 2.21 1.99 1.95
0.63 0.76 0.50 0.39 0.45 0.44 0.39 0.30 0.31 0.32 0.47 0.70 0.90 1.20 1.74 2.12 1.74 1.40 1.37 1.41 1.54 1.52 1.58 1.88 2.15 2.18 2.22 2.50 2.52 2.51 2.47 2.55 2.51 2.35 2.28 2.12 1.89 1.85 1.79 1.86 1.95 1.92 2.08 2.29 2.49 2.43 2.26 2.03 2.02
0.32 0.40 0.39 0.33 0.28 0.36 0.36 0.29 0.28 0.33 0.43 0.62 0.82 1.13 1.78 1.81 1.54 1.46 1.69 1.81 1.97 1.82 1.69 1.86 2.02 1.94 1.89 2.09 2.41 2.48 2.35 2.30 2.34 2.34 2.21 2.24 2.13 1.95 1.92 1.92 2.00 2.07 2.22 2.54 2.68 2.58 2.42 2.13 2.12
0.20 0.31 0.30 0.24 0.20 0.27 0.26 0.26 0.30 0.31 0.38 0.61 0.79 1.06 1.40 1.34 1.30 1.36 1.95 2.15 2.21 2.05 1.95 1.85 1.77 1.73 1.76 1.79 2.11 2.35 2.36 2.30 2.34 2.38 2.32 2.36 2.44 2.18 2.23 2.20 2.44 2.52 2.50 2.81 3.03 3.05 2.78 2.47 2.39
0.16 0.19 0.14 0.11 0.12 0.18 0.22 0.29 0.30 0.34 0.54 0.95 1.27 1.30 1.26 1.26 1.39 1.60 2.05 2.06 2.22 2.28 2.05 1.99 1.90 1.74 1.60 1.63 1.93 2.28 2.12 2.19 2.35 2.51 2.44 2.50 2.77 2.83 2.30 2.58 3.06 3.23 3.25 3.37 3.58 3.62 3.08 2.62 2.45
0.11 0.12 0.08 0.09 0.12 0.17 0.20 0.28 0.33 0.39 0.83 1.29 1.74 1.57 1.38 1.48 1.61 1.87 2.29 2.52 2.50 2.61 2.36 2.26 2.10 1.83 1.60 1.77 1.69 1.93 2.16 2.38 2.51 2.50 2.52 2.62 2.50 2.43 2.42 2.80 3.33 3.54 3.51 3.46 3.69 3.59 3.03 2.99 3.10
0.07 0.09 0.11 0.13 0.16 0.18 0.25 0.30 0.38 0.49 0.78 0.90 1.13 1.39 1.51 1.69 1.93 2.20 2.38 2.62 2.64 2.73 2.60 2.65 2.33 2.18 2.21 2.03 1.74 1.64 1.73 1.98 2.31 2.62 2.62 2.74 3.02 3.02 2.94 3.11 3.26 3.52 3.68 3.95 3.65 3.68 3.48 3.43 3.27
0.07 0.09 0.12 0.13 0.15 0.18 0.23 0.26 0.39 0.55 0.62 0.67 0.97 1.34 1.69 1.82 2.11 2.42 2.52 2.80 2.71 2.70 2.72 2.81 2.65 2.48 2.54 2.29 2.04 1.81 1.94 1.96 2.09 2.39 2.68 2.82 3.22 3.48 3.39 3.28 3.35 3.35 3.30 3.43 3.48 3.36 3.66 3.85 3.43
0.06 0.08 0.09 0.10 0.16 0.19 0.23 0.28 0.40 0.57 0.67 0.83 1.05 1.35 1.67 1.99 2.20 2.36 2.79 2.95 3.02 2.95 3.03 2.87 2.85 2.82 2.78 2.67 2.60 2.51 2.24 2.34 2.31 2.39 2.50 2.74 3.20 3.62 3.69 3.51 3.42 3.22 3.11 3.18 3.31 3.42 3.87 3.85 3.67
0.08 0.13 0.13 0.15 0.20 0.20 0.27 0.47 0.61 0.73 0.76 0.90 1.11 1.26 1.61 2.14 2.38 2.42 2.76 2.92 2.87 3.26 3.33 3.35 3.32 3.46 3.41 3.22 3.09 2.86 2.64 2.52 2.56 2.72 2.82 2.82 3.02 3.39 3.36 3.17 3.04 3.01 3.07 3.26 3.29 3.48 3.67 3.39 3.43
0.10 0.23 0.29 0.26 0.24 0.22 0.34 0.72 0.80 0.86 0.83 1.01 1.19 1.36 1.67 1.99 2.32 2.46 2.75 2.96 3.05 3.44 3.64 3.84 3.81 3.88 3.70 3.69 3.65 3.35 3.08 2.92 2.79 2.76 2.84 2.71 2.74 2.92 3.22 3.01 2.88 3.17 3.17 3.29 3.60 3.75 3.68 3.68 3.73
0.15 0.21 0.25 0.26 0.22 0.22 0.32 0.63 0.77 0.91 1.10 1.24 1.40 1.55 1.61 1.91 2.22 2.57 2.84 3.19 3.47 3.83 4.13 4.36 4.40 4.28 4.00 4.03 4.00 3.79 3.64 3.35 2.99 2.83 2.79 2.67 2.68 2.83 3.17 3.19 3.28 3.31 3.44 3.48 3.30 3.75 3.83 3.78 3.81
0.15 0.17 0.21 0.25 0.21 0.23 0.42 0.65 0.75 0.95 1.21 1.24 1.49 1.65 1.73 1.83 2.27 2.72 2.92 3.32 3.78 4.31 4.73 4.61 4.60 4.81 4.68 4.53 4.38 4.07 3.60 3.18 3.03 3.00 2.83 2.71 2.79 2.91 3.34 3.22 3.20 3.26 3.47 3.59 3.55 3.71 3.76 3.52 3.51
0.10 0.14 0.20 0.24 0.20 0.25 0.42 0.68 0.97 1.12 1.41 1.34 1.35 1.52 1.65 1.77 2.08 2.52 2.82 3.35 3.94 4.37 4.79 4.98 5.05 4.95 4.79 4.43 4.13 3.88 3.63 3.41 3.16 2.96 2.86 2.79 2.72 2.93 3.42 3.20 3.48 3.41 3.43 3.49 3.54 3.69 3.61 3.32 3.52
0.11 0.15 0.19 0.24 0.24 0.32 0.51 0.74 1.07 1.12 1.20 1.23 1.14 1.21 1.40 1.75 2.02 2.55 2.86 3.06 3.49 4.01 4.48 4.81 4.99 4.87 4.49 4.15 4.00 3.90 3.85 3.46 3.18 3.15 3.30 3.13 3.13 3.16 3.19 3.43 3.38 3.43 3.60 3.57 3.54 3.70 3.47 3.11 3.40
0.15 0.17 0.20 0.21 0.25 0.44 0.58 1.07 1.32 1.20 1.18 1.16 1.13 1.22 1.40 1.83 2.31 2.61 2.81 2.93 3.18 3.59 3.89 4.00 4.18 4.15 4.00 4.04 4.07 4.03 4.06 3.66 3.59 3.60 3.62 3.40 3.39 3.40 3.40 3.38 3.29 3.31 3.15 3.26 3.35 3.37 3.39 3.31 3.25
0.18 0.16 0.15 0.18 0.29 0.55 0.66 1.36 1.75 1.48 1.37 1.44 1.43 1.39 1.65 1.94 1.99 2.20 2.49 2.77 2.94 3.17 3.49 3.71 3.77 3.72 3.65 3.77 3.84 3.75 3.57 3.46 3.63 3.90 3.83 3.56 3.35 3.23 3.05 3.00 3.17 3.19 2.98 3.05 2.70 2.87 3.08 3.08 2.94
0.15 0.15 0.18 0.23 0.32 0.54 0.71 1.10 1.64 1.58 1.74 1.70 1.54 1.59 1.85 1.83 1.73 1.84 2.05 2.38 2.51 2.84 3.11 3.32 3.57 3.66 3.61 3.68 3.68 3.72 3.56 3.55 3.61 3.62 3.67 3.48 3.30 2.99 2.66 2.69 2.90 2.87 2.77 2.68 2.58 2.78 2.62 2.54 2.62
0.13 0.18 0.29 0.38 0.54 0.94 0.76 0.89 1.46 1.56 1.49 1.48 1.46 1.41 1.58 1.54 1.51 1.73 1.91 2.21 2.37 2.50 2.64 2.75 2.96 3.23 3.41 3.45 3.42 3.48 3.43 3.42 3.39 3.38 3.28 3.08 2.93 2.74 2.42 2.30 2.48 2.60 2.64 2.59 2.55 2.64 2.52 2.56 2.70
0.15 0.28 0.72 1.10 1.29 1.29 0.69 0.82 1.34 1.25 1.17 1.17 1.28 1.31 1.33 1.25 1.24 1.47 1.64 1.81 2.03 2.14 2.26 2.41 2.70 3.04 3.11 3.07 3.03 3.14 3.22 3.24 3.18 3.17 3.03 2.82 2.59 2.38 2.31 2.30 2.41 2.44 2.49 2.38 2.43 2.48 2.50 2.69 2.77
0.18 0.25 0.65 0.98 1.08 1.06 0.87 1.27 1.68 1.26 1.09 1.11 1.19 1.20 1.14 1.05 1.00 1.14 1.41 1.73 1.90 1.90 1.97 2.13 2.44 2.71 2.75 2.67 2.81 3.07 3.15 3.18 3.10 3.14 2.83 2.57 2.37 2.32 2.41 2.39 2.24 2.19 2.29 2.17 2.45 2.38 2.44 2.68 2.76
0.18 0.21 0.30 0.49 0.59 0.88 1.13 1.42 1.42 0.97 0.90 0.95 1.01 1.05 1.16 1.10 1.01 1.08 1.18 1.40 1.54 1.61 1.68 1.83 2.26 2.55 2.64 2.71 2.83 2.96 3.07 3.03 2.99 2.91 2.63 2.37 2.39 2.33 2.46 2.41 2.30 2.20 2.29 2.41 2.69 2.64 2.58 2.80 2.79
0.18 0.22 0.27 0.39 0.65 1.00 1.21 1.50 1.61 1.13 0.91 0.69 0.67 0.78 0.84 0.85 0.86 0.93 0.98 1.10 1.21 1.39 1.66 1.85 2.02 2.35 2.45 2.55 2.71 2.74 2.97 2.86 2.70 2.66 2.43 2.18 2.10 2.17 2.35 2.46 2.37 2.29 2.34 2.53 2.73 2.72 2.86 3.03 3.07
0.20 0.22 0.25 0.30 0.43 0.74 1.27 1.47 1.12 0.91 0.76 0.72 0.71 0.80 0.83 0.80 0.77 0.82 0.95 1.08 1.18 1.33 1.55 1.69 1.73 1.96 2.16 2.30 2.48 2.47 2.46 2.53 2.60 2.43 2.17 2.08 2.10 2.17 2.21 2.35 2.40 2.35 2.41 2.54 2.61 2.57 2.89 3.03 3.06
0.20 0.19 0.23 0.31 0.32 0.43 0.78 1.12 0.80 0.79 0.81 0.79 0.79 0.86 0.93 0.90 0.83 0.88 1.04 1.17 1.25 1.39 1.44 1.49 1.58 1.79 2.00 2.19 2.40 2.46 2.44 2.49 2.53 2.38 2.19 2.16 2.20 2.20 2.16 2.25 2.29 2.19 2.21 2.44 2.46 2.51 2.81 2.98 2.87

GEFSSGP_prec_meanprecacc_348.txt.gz
Total_Precipitation_Accumulation
0.13 0.29 0.72 1.19 1.81 2.46 2.19 1.50 0.88 0.67 0.59 0.68 0.76 0.74 0.83 0.95 1.36 2.11 2.21 1.98 1.67 1.85 2.23 2.76 2.91 2.48 2.29 2.30 2.27 2.34 2.51 2.50 2.53 2.58 2.59 2.68 2.89 3.08 3.22 3.19 2.95 2.81 2.74 2.63 2.81 2.93 2.83 2.73 2.53
0.23 0.53 0.96 1.44 2.17 2.43 1.92 1.64 0.84 0.63 0.60 0.63 0.67 0.72 0.77 0.70 0.69 1.18 1.96 1.81 1.51 1.61 1.83 2.26 2.70 2.40 2.11 2.18 2.23 2.36 2.44 2.41 2.42 2.49 2.57 2.75 3.00 3.15 3.10 2.91 2.74 2.70 2.57 2.46 2.53 2.74 2.64 2.40 2.31
0.36 0.69 1.03 1.48 1.56 1.55 1.29 1.08 0.68 0.60 0.57 0.68 0.72 0.68 0.69 0.93 0.90 1.28 1.65 1.47 1.50 1.57 1.77 2.32 2.67 2.54 2.33 2.27 2.34 2.31 2.27 2.27 2.41 2.57 2.74 2.97 3.00 3.01 2.86 2.69 2.56 2.43 2.26 2.28 2.37 2.60 2.54 2.36 2.29
0.43 0.76 1.00 1.06 0.92 0.80 0.69 0.58 0.44 0.52 0.49 0.59 0.69 0.68 0.82 0.97 0.92 1.25 1.45 1.46 1.48 1.64 1.83 2.18 2.46 2.44 2.36 2.17 2.16 2.25 2.33 2.39 2.54 2.54 2.66 2.85 2.80 2.83 2.69 2.44 2.32 2.19 2.03 2.04 2.25 2.54 2.57 2.41 2.32
0.55 0.85 1.05 0.85 0.68 0.63 0.54 0.45 0.41 0.50 0.49 0.61 0.74 0.91 1.18 1.19 1.02 1.30 1.47 1.44 1.41 1.49 1.74 1.95 2.31 2.48 2.42 2.28 2.32 2.37 2.38 2.44 2.52 2.44 2.49 2.52 2.55 2.59 2.39 2.19 2.19 2.11 1.89 1.87 2.28 2.55 2.47 2.22 2.14
0.58 0.83 0.77 0.58 0.57 0.51 0.47 0.38 0.35 0.45 0.52 0.61 0.80 1.10 1.56 1.65 1.41 1.36 1.34 1.24 1.32 1.46 1.63 1.81 2.19 2.44 2.54 2.44 2.46 2.45 2.45 2.55 2.50 2.40 2.39 2.30 2.15 2.26 2.18 2.03 2.11 2.08 1.97 2.12 2.44 2.51 2.28 2.09 2.08
0.65 0.77 0.53 0.41 0.47 0.46 0.41 0.33 0.38 0.38 0.50 0.72 0.91 1.20 1.75 2.13 1.76 1.42 1.39 1.43 1.56 1.54 1.61 1.92 2.19 2.22 2.28 2.57 2.60 2.60 2.58 2.68 2.63 2.49 2.35 2.19 1.97 1.94 1.88 1.95 2.07 2.09 2.19 2.38 2.58 2.55 2.36 2.12 2.12
0.34 0.42 0.41 0.36 0.30 0.37 0.37 0.31 0.34 0.39 0.46 0.64 0.83 1.14 1.79 1.82 1.56 1.49 1.72 1.83 1.99 1.85 1.72 1.88 2.05 1.98 1.95 2.17 2.52 2.63 2.50 2.45 2.49 2.51 2.33 2.34 2.22 2.04 2.01 2.01 2.08 2.19 2.32 2.63 2.76 2.70 2.54 2.24 2.23
0.21 0.33 0.32 0.25 0.22 0.29 0.28 0.29 0.33 0.35 0.41 0.63 0.80 1.06 1.40 1.35 1.31 1.38 1.98 2.18 2.23 2.07 1.97 1.90 1.84 1.80 1.84 1.89 2.23 2.51 2.59 2.53 2.57 2.63 2.50 2.49 2.54 2.27 2.34 2.32 2.54 2.62 2.62 2.95 3.16 3.17 2.89 2.63 2.63
0.18 0.20 0.16 0.12 0.13 0.19 0.24 0.30 0.32 0.37 0.58 0.97 1.28 1.31 1.26 1.26 1.40 1.61 2.07 2.08 2.24 2.30 2.09 2.08 2.02 1.84 1.71 1.75 2.07 2.44 2.30 2.41 2.64 2.75 2.59 2.60 2.84 2.89 2.38 2.68 3.18 3.35 3.39 3.55 3.74 3.73 3.17 2.72 2.59
0.12 0.14 0.10 0.10 0.13 0.18 0.21 0.29 0.34 0.41 0.85 1.31 1.75 1.58 1.38 1.49 1.62 1.88 2.30 2.53 2.51 2.63 2.39 2.32 2.19 1.93 1.68 1.84 1.76 2.01 2.26 2.50 2.65 2.60 2.58 2.67 2.56 2.49 2.50 2.92 3.48 3.68 3.62 3.57 3.81 3.67 3.08 3.03 3.15
0.08 0.10 0.12 0.14 0.17 0.19 0.25 0.30 0.39 0.51 0.80 0.91 1.14 1.39 1.51 1.70 1.94 2.21 2.39 2.63 2.65 2.75 2.63 2.68 2.38 2.25 2.27 2.08 1.76 1.67 1.76 2.01 2.36 2.67 2.66 2.79 3.08 3.09 3.02 3.25 3.35 3.60 3.74 3.99 3.69 3.71 3.53 3.49 3.33
0.08 0.10 0.13 0.14 0.16 0.19 0.24 0.27 0.40 0.56 0.63 0.68 0.98 1.35 1.70 1.82 2.11 2.43 2.53 2.81 2.72 2.71 2.74 2.84 2.68 2.52 2.58 2.32 2.05 1.82 1.96 2.00 2.14 2.45 2.73 2.86 3.26 3.55 3.48 3.42 3.43 3.40 3.34 3.46 3.50 3.38 3.71 3.89 3.48
0.06 0.09 0.10 0.11 0.16 0.20 0.24 0.30 0.43 0.61 0.69 0.85 1.06 1.35 1.68 1.99 2.21 2.37 2.80 2.96 3.03 2.96 3.04 2.88 2.86 2.83 2.79 2.69 2.61 2.53 2.28 2.40 2.39 2.47 2.56 2.79 3.27 3.71 3.79 3.61 3.49 3.26 3.14 3.20 3.33 3.45 3.89 3.87 3.69
0.09 0.14 0.15 0.17 0.22 0.22 0.28 0.50 0.65 0.78 0.80 0.93 1.12 1.27 1.62 2.15 2.39 2.43 2.77 2.93 2.87 3.27 3.34 3.37 3.34 3.48 3.41 3.23 3.11 2.89 2.68 2.55 2.62 2.82 2.92 2.91 3.13 3.49 3.45 3.25 3.10 3.05 3.10 3.28 3.32 3.51 3.69 3.41 3.45
0.11 0.25 0.30 0.28 0.27 0.24 0.35 0.75 0.85 0.93 0.90 1.05 1.21 1.37 1.68 2.00 2.33 2.47 2.76 2.96 3.05 3.45 3.66 3.88 3.83 3.89 3.72 3.70 3.67 3.38 3.10 2.93 2.81 2.82 2.94 2.80 2.81 2.98 3.28 3.06 2.93 3.21 3.21 3.32 3.62 3.78 3.70 3.69 3.74
0.16 0.23 0.27 0.28 0.23 0.24 0.33 0.65 0.81 0.97 1.15 1.30 1.43 1.57 1.63 1.92 2.24 2.59 2.85 3.19 3.48 3.84 4.17 4.46 4.48 4.32 4.02 4.06 4.04 3.83 3.66 3.35 3.00 2.84 2.81 2.71 2.72 2.88 3.22 3.24 3.32 3.35 3.47 3.51 3.33 3.78 3.84 3.80 3.84
0.16 0.20 0.24 0.26 0.22 0.25 0.44 0.69 0.81 1.00 1.26 1.28 1.51 1.66 1.74 1.84 2.29 2.73 2.93 3.33 3.79 4.31 4.75 4.68 4.66 4.84 4.69 4.55 4.42 4.11 3.62 3.19 3.04 3.01 2.85 2.74 2.83 2.95 3.38 3.25 3.23 3.29 3.50 3.61 3.57 3.73 3.79 3.54 3.54
0.11 0.16 0.21 0.26 0.23 0.27 0.44 0.72 1.03 1.17 1.48 1.38 1.38 1.53 1.66 1.78 2.10 2.54 2.83 3.35 3.95 4.39 4.81 5.01 5.08 4.96 4.79 4.44 4.14 3.89 3.64 3.42 3.17 2.98 2.88 2.82 2.75 2.97 3.44 3.21 3.49 3.42 3.45 3.50 3.55 3.71 3.63 3.35 3.54
0.12 0.17 0.21 0.26 0.26 0.34 0.53 0.78 1.12 1.18 1.26 1.28 1.18 1.23 1.41 1.76 2.03 2.55 2.87 3.07 3.50 4.02 4.50 4.83 5.01 4.90 4.52 4.16 4.01 3.92 3.88 3.47 3.20 3.17 3.33 3.15 3.15 3.18 3.22 3.45 3.39 3.44 3.62 3.59 3.56 3.72 3.50 3.14 3.42
0.15 0.18 0.21 0.23 0.26 0.45 0.61 1.11 1.36 1.24 1.25 1.24 1.17 1.23 1.41 1.85 2.31 2.61 2.81 2.94 3.19 3.59 3.90 4.01 4.19 4.17 4.01 4.05 4.07 4.04 4.08 3.67 3.61 3.62 3.63 3.41 3.42 3.44 3.45 3.41 3.32 3.35 3.19 3.30 3.39 3.41 3.42 3.34 3.26
0.18 0.16 0.16 0.19 0.30 0.57 0.67 1.38 1.79 1.51 1.42 1.50 1.46 1.41 1.67 1.96 2.01 2.21 2.50 2.77 2.94 3.18 3.49 3.71 3.78 3.73 3.66 3.79 3.85 3.76 3.58 3.46 3.63 3.91 3.84 3.58 3.37 3.26 3.09 3.03 3.19 3.21 3.00 3.09 2.74 2.91 3.10 3.10 2.95
0.15 0.16 0.19 0.25 0.34 0.55 0.72 1.11 1.67 1.61 1.76 1.73 1.56 1.61 1.87 1.85 1.75 1.86 2.07 2.39 2.51 2.84 3.11 3.32 3.58 3.67 3.62 3.70 3.69 3.73 3.56 3.55 3.61 3.62 3.68 3.48 3.31 3.00 2.67 2.70 2.92 2.89 2.80 2.72 2.62 2.82 2.64 2.56 2.63
0.14 0.19 0.30 0.39 0.55 0.95 0.78 0.90 1.48 1.57 1.50 1.50 1.48 1.43 1.60 1.56 1.53 1.75 1.93 2.22 2.38 2.51 2.65 2.76 2.98 3.25 3.42 3.47 3.44 3.49 3.45 3.43 3.39 3.38 3.28 3.08 2.94 2.74 2.43 2.32 2.51 2.64 2.69 2.67 2.62 2.69 2.56 2.58 2.71
0.16 0.29 0.73 1.11 1.30 1.29 0.70 0.82 1.34 1.25 1.17 1.19 1.30 1.33 1.34 1.28 1.27 1.49 1.65 1.83 2.04 2.15 2.26 2.41 2.71 3.05 3.13 3.10 3.05 3.17 3.25 3.26 3.20 3.18 3.04 2.83 2.60 2.39 2.32 2.34 2.46 2.49 2.55 2.43 2.48 2.53 2.54 2.71 2.79
0.19 0.26 0.66 0.98 1.08 1.07 0.88 1.27 1.68 1.26 1.09 1.12 1.22 1.21 1.16 1.08 1.03 1.16 1.43 1.74 1.92 1.91 1.98 2.13 2.44 2.72 2.76 2.68 2.82 3.09 3.17 3.20 3.12 3.17 2.86 2.60 2.39 2.34 2.44 2.43 2.29 2.25 2.34 2.21 2.48 2.41 2.47 2.71 2.78
0.19 0.21 0.30 0.50 0.59 0.88 1.14 1.43 1.43 0.98 0.91 0.97 1.03 1.07 1.18 1.11 1.02 1.09 1.19 1.41 1.55 1.62 1.69 1.84 2.27 2.55 2.64 2.72 2.84 2.98 3.10 3.07 3.04 2.95 2.67 2.41 2.43 2.38 2.51 2.47 2.38 2.25 2.32 2.42 2.71 2.66 2.60 2.83 2.83
0.18 0.22 0.27 0.39 0.65 1.01 1.21 1.50 1.61 1.13 0.92 0.70 0.68 0.78 0.85 0.86 0.86 0.94 0.99 1.11 1.22 1.40 1.67 1.86 2.02 2.35 2.46 2.56 2.72 2.77 3.00 2.90 2.74 2.70 2.48 2.24 2.14 2.22 2.43 2.56 2.45 2.31 2.36 2.55 2.75 2.74 2.89 3.07 3.11
0.20 0.22 0.26 0.30 0.44 0.76 1.28 1.47 1.12 0.91 0.77 0.74 0.72 0.81 0.85 0.81 0.77 0.82 0.96 1.09 1.19 1.33 1.55 1.69 1.74 1.97 2.17 2.31 2.51 2.50 2.50 2.57 2.64 2.49 2.23 2.15 2.18 2.28 2.33 2.43 2.43 2.37 2.42 2.57 2.64 2.61 2.93 3.08 3.11
0.20 0.19 0.23 0.32 0.33 0.44 0.79 1.12 0.80 0.79 0.81 0.79 0.79 0.87 0.95 0.91 0.83 0.88 1.05 1.18 1.26 1.40 1.45 1.50 1.58 1.80 2.01 2.21 2.42 2.49 2.48 2.54 2.58 2.44 2.25 2.25 2.31 2.31 2.24 2.30 2.31 2.20 2.23 2.46 2.49 2.55 2.85 3.01 2.89

GEFSSGP_prec_meanprecacc_354.txt.gz
Total_Precipitation_Accumulation
0.14 0.31 0.73 1.20 1.84 2.48 2.23 1.52 0.89 0.68 0.61 0.69 0.77 0.75 0.84 0.97 1.38 2.14 2.24 1.99 1.69 1.87 2.29 2.89 3.13 2.79 2.55 2.49 2.42 2.47 2.62 2.59 2.62 2.67 2.70 2.80 3.03 3.21 3.33 3.30 3.04 2.90 2.85 2.73 2.90 3.03 2.94 2.85 2.69
0.24 0.55 0.97 1.45 2.20 2.45 1.94 1.65 0.85 0.64 0.60 0.63 0.68 0.72 0.78 0.71 0.71 1.21 1.97 1.82 1.53 1.67 1.95 2.42 2.92 2.73 2.41 2.41 2.42 2.54 2.59 2.52 2.51 2.59 2.76 2.93 3.15 3.27 3.21 3.00 2.83 2.80 2.69 2.57 2.63 2.85 2.76 2.53 2.49
0.37 0.70 1.04 1.49 1.58 1.57 1.32 1.09 0.69 0.60 0.57 0.69 0.72 0.68 0.70 0.96 0.93 1.31 1.67 1.48 1.53 1.65 1.89 2.49 2.90 2.80 2.58 2.48 2.52 2.47 2.40 2.37 2.51 2.68 2.86 3.10 3.13 3.17 3.01 2.83 2.70 2.59 2.39 2.39 2.48 2.73 2.68 2.49 2.47
0.44 0.76 1.01 1.08 0.96 0.83 0.71 0.60 0.46 0.54 0.50 0.59 0.70 0.69 0.83 0.99 0.95 1.27 1.46 1.47 1.51 1.69 1.93 2.37 2.68 2.66 2.56 2.39 2.36 2.44 2.49 2.51 2.67 2.66 2.78 2.97 2.94 3.05 2.93 2.67 2.54 2.34 2.15 2.15 2.36 2.65 2.71 2.54 2.47
0.55 0.86 1.07 0.87 0.72 0.65 0.55 0.46 0.42 0.51 0.51 0.62 0.74 0.92 1.19 1.20 1.04 1.32 1.48 1.45 1.43 1.53 1.80 2.06 2.48 2.66 2.59 2.47 2.55 2.62 2.59 2.61 2.67 2.59 2.59 2.60 2.64 2.75 2.61 2.43 2.40 2.25 1.99 1.96 2.38 2.66 2.61 2.36 2.31
0.59 0.85 0.78 0.60 0.59 0.52 0.49 0.39 0.36 0.45 0.53 0.62 0.80 1.10 1.58 1.67 1.43 1.37 1.36 1.25 1.35 1.49 1.68 1.90 2.29 2.56 2.67 2.62 2.68 2.66 2.64 2.71 2.64 2.54 2.48 2.37 2.23 2.36 2.31 2.17 2.28 2.20 2.06 2.21 2.54 2.65 2.46 2.31 2.34
0.65 0.78 0.54 0.43 0.49 0.47 0.42 0.34 0.39 0.38 0.51 0.73 0.91 1.21 1.77 2.15 1.78 1.43 1.41 1.44 1.59 1.59 1.67 2.00 2.28 2.33 2.40 2.71 2.78 2.75 2.75 2.83 2.76 2.67 2.47 2.28 2.07 2.05 2.00 2.06 2.18 2.18 2.27 2.46 2.68 2.68 2.52 2.37 2.50
0.34 0.43 0.42 0.37 0.31 0.38 0.39 0.32 0.35 0.40 0.48 0.64 0.84 1.15 1.80 1.84 1.58 1.51 1.74 1.85 2.03 1.92 1.79 1.96 2.13 2.07 2.06 2.31 2.70 2.80 2.65 2.61 2.65 2.75 2.50 2.45 2.33 2.16 2.12 2.10 2.15 2.27 2.42 2.73 2.87 2.84 2.71 2.44 2.50
0.21 0.33 0.32 0.25 0.22 0.30 0.29 0.29 0.34 0.36 0.42 0.63 0.81 1.07 1.41 1.36 1.32 1.40 2.00 2.21 2.27 2.13 2.07 2.01 1.91 1.86 1.92 2.02 2.41 2.67 2.75 2.70 2.77 2.89 2.68 2.62 2.65 2.36 2.42 2.38 2.60 2.69 2.72 3.07 3.29 3.33 3.03 2.81 2.90
0.18 0.21 0.16 0.13 0.13 0.20 0.25 0.31 0.32 0.38 0.58 0.97 1.28 1.32 1.27 1.28 1.42 1.64 2.11 2.11 2.27 2.34 2.15 2.14 2.06 1.89 1.78 1.86 2.23 2.60 2.43 2.55 2.86 2.98 2.74 2.71 2.93 2.97 2.44 2.74 3.24 3.43 3.48 3.68 3.88 3.85 3.26 2.83 2.73
0.12 0.14 0.10 0.10 0.13 0.18 0.21 0.30 0.34 0.41 0.86 1.32 1.76 1.59 1.39 1.50 1.63 1.90 2.32 2.55 2.53 2.65 2.43 2.37 2.22 1.95 1.71 1.91 1.90 2.21 2.48 2.73 2.87 2.75 2.69 2.75 2.63 2.56 2.57 3.01 3.58 3.76 3.71 3.77 3.96 3.77 3.15 3.11 3.23
0.08 0.10 0.12 0.14 0.17 0.19 0.26 0.31 0.40 0.51 0.80 0.92 1.14 1.40 1.53 1.71 1.94 2.22 2.40 2.63 2.66 2.76 2.65 2.72 2.44 2.29 2.31 2.12 1.82 1.79 1.90 2.14 2.46 2.75 2.73 2.84 3.13 3.14 3.10 3.35 3.43 3.67 3.83 4.14 3.81 3.82 3.62 3.56 3.41
0.08 0.10 0.13 0.14 0.16 0.19 0.25 0.28 0.42 0.57 0.64 0.68 0.98 1.35 1.70 1.83 2.12 2.43 2.54 2.82 2.73 2.72 2.76 2.87 2.72 2.55 2.61 2.34 2.07 1.86 2.01 2.05 2.21 2.50 2.78 2.90 3.33 3.63 3.57 3.52 3.52 3.47 3.39 3.53 3.57 3.45 3.79 3.96 3.53
0.06 0.09 0.10 0.12 0.17 0.21 0.24 0.30 0.43 0.61 0.70 0.85 1.07 1.35 1.68 2.00 2.21 2.37 2.80 2.96 3.03 2.97 3.05 2.90 2.88 2.84 2.80 2.69 2.62 2.55 2.30 2.43 2.42 2.52 2.60 2.83 3.34 3.79 3.87 3.70 3.55 3.31 3.19 3.26 3.39 3.51 3.96 3.94 3.75
0.09 0.14 0.15 0.17 0.22 0.23 0.29 0.52 0.66 0.78 0.82 0.95 1.13 1.27 1.62 2.15 2.39 2.43 2.77 2.93 2.88 3.29 3.39 3.41 3.36 3.48 3.43 3.25 3.12 2.91 2.72 2.61 2.68 2.90 3.01 3.01 3.21 3.58 3.54 3.30 3.13 3.09 3.15 3.35 3.38 3.58 3.76 3.47 3.51
0.11 0.25 0.31 0.28 0.27 0.25 0.37 0.79 0.86 0.94 0.92 1.08 1.22 1.38 1.69 2.00 2.33 2.47 2.76 2.97 3.06 3.48 3.77 4.05 3.88 3.91 3.74 3.73 3.70 3.40 3.14 3.00 2.89 2.93 3.06 2.90 2.87 3.03 3.33 3.10 2.97 3.24 3.25 3.38 3.69 3.87 3.77 3.75 3.79
0.16 0.23 0.27 0.28 0.24 0.24 0.35 0.68 0.82 0.98 1.18 1.34 1.45 1.58 1.64 1.93 2.25 2.59 2.85 3.19 3.48 3.85 4.23 4.68 4.60 4.36 4.05 4.09 4.07 3.86 3.69 3.39 3.03 2.88 2.86 2.74 2.74 2.90 3.25 3.27 3.37 3.38 3.50 3.56 3.37 3.82 3.89 3.85 3.88
0.17 0.20 0.24 0.27 0.23 0.25 0.45 0.71 0.82 1.02 1.29 1.32 1.54 1.69 1.76 1.85 2.30 2.74 2.94 3.33 3.79 4.32 4.77 4.74 4.71 4.88 4.73 4.57 4.44 4.13 3.64 3.20 3.05 3.03 2.88 2.76 2.85 2.97 3.40 3.27 3.26 3.31 3.54 3.65 3.60 3.77 3.83 3.59 3.59
0.11 0.16 0.22 0.26 0.23 0.28 0.45 0.73 1.04 1.20 1.50 1.41 1.41 1.56 1.68 1.80 2.11 2.55 2.85 3.37 3.96 4.40 4.82 5.02 5.10 4.98 4.82 4.46 4.16 3.91 3.66 3.44 3.19 3.00 2.91 2.84 2.78 2.99 3.46 3.23 3.52 3.45 3.48 3.54 3.60 3.76 3.69 3.40 3.59
0.12 0.17 0.21 0.26 0.26 0.35 0.54 0.79 1.13 1.20 1.28 1.29 1.19 1.25 1.43 1.77 2.04 2.56 2.88 3.09 3.50 4.02 4.50 4.83 5.02 4.91 4.53 4.18 4.03 3.95 3.91 3.50 3.22 3.20 3.36 3.18 3.18 3.21 3.24 3.48 3.45 3.50 3.67 3.65 3.63 3.77 3.54 3.18 3.47
0.16 0.18 0.21 0.23 0.26 0.46 0.62 1.12 1.38 1.26 1.27 1.25 1.18 1.25 1.42 1.86 2.32 2.61 2.81 2.95 3.19 3.59 3.90 4.01 4.20 4.17 4.02 4.06 4.09 4.06 4.10 3.69 3.63 3.64 3.66 3.44 3.44 3.46 3.48 3.46 3.40 3.43 3.25 3.35 3.44 3.46 3.47 3.39 3.30
0.19 0.16 0.16 0.20 0.30 0.57 0.68 1.40 1.80 1.52 1.43 1.51 1.47 1.42 1.68 1.97 2.02 2.22 2.50 2.77 2.94 3.18 3.50 3.71 3.78 3.74 3.67 3.79 3.86 3.77 3.59 3.48 3.65 3.93 3.86 3.59 3.39 3.27 3.11 3.06 3.23 3.25 3.04 3.13 2.80 2.97 3.16 3.16 3.00
0.15 0.16 0.19 0.25 0.34 0.55 0.72 1.13 1.68 1.61 1.77 1.73 1.56 1.61 1.88 1.86 1.76 1.87 2.07 2.39 2.51 2.84 3.12 3.32 3.58 3.67 3.62 3.71 3.70 3.74 3.57 3.56 3.62 3.64 3.69 3.50 3.32 3.01 2.68 2.72 2.94 2.92 2.84 2.76 2.67 2.87 2.70 2.61 2.68
0.15 0.20 0.30 0.39 0.56 0.96 0.78 0.91 1.49 1.58 1.51 1.51 1.48 1.43 1.61 1.57 1.54 1.76 1.93 2.23 2.38 2.51 2.65 2.76 2.98 3.25 3.43 3.47 3.45 3.50 3.46 3.45 3.40 3.39 3.29 3.09 2.94 2.75 2.44 2.34 2.55 2.68 2.74 2.71 2.68 2.74 2.61 2.63 2.76
0.16 0.30 0.74 1.12 1.31 1.30 0.70 0.83 1.35 1.26 1.18 1.19 1.30 1.33 1.34 1.29 1.28 1.50 1.66 1.84 2.04 2.15 2.27 2.42 2.71 3.05 3.14 3.10 3.05 3.17 3.26 3.27 3.20 3.19 3.05 2.84 2.61 2.40 2.34 2.36 2.50 2.54 2.60 2.48 2.53 2.58 2.60 2.77 2.84
0.19 0.26 0.67 0.99 1.09 1.07 0.88 1.28 1.68 1.27 1.09 1.12 1.22 1.21 1.16 1.08 1.04 1.20 1.47 1.77 1.93 1.91 1.98 2.14 2.45 2.72 2.76 2.69 2.83 3.10 3.18 3.21 3.13 3.17 2.87 2.61 2.41 2.36 2.47 2.47 2.35 2.30 2.39 2.24 2.52 2.45 2.51 2.76 2.83
0.19 0.21 0.31 0.51 0.60 0.88 1.14 1.43 1.43 0.98 0.91 0.97 1.03 1.07 1.18 1.11 1.04 1.13 1.23 1.43 1.56 1.62 1.69 1.84 2.27 2.55 2.64 2.72 2.85 2.99 3.12 3.08 3.04 2.95 2.68 2.42 2.44 2.40 2.56 2.55 2.47 2.34 2.39 2.47 2.74 2.69 2.63 2.87 2.86
0.18 0.22 0.28 0.40 0.66 1.01 1.22 1.50 1.61 1.14 0.92 0.70 0.68 0.79 0.85 0.86 0.87 0.95 1.00 1.12 1.22 1.40 1.67 1.86 2.02 2.35 2.46 2.57 2.74 2.77 3.01 2.91 2.75 2.72 2.50 2.26 2.18 2.28 2.51 2.67 2.56 2.41 2.42 2.59 2.77 2.75 2.90 3.09 3.13
0.21 0.23 0.27 0.32 0.45 0.77 1.29 1.48 1.12 0.92 0.77 0.74 0.72 0.81 0.85 0.81 0.77 0.82 0.96 1.09 1.19 1.33 1.55 1.69 1.74 1.98 2.18 2.31 2.51 2.51 2.51 2.58 2.67 2.53 2.27 2.19 2.24 2.35 2.42 2.53 2.52 2.43 2.45 2.58 2.65 2.62 2.94 3.10 3.12
0.21 0.19 0.24 0.33 0.34 0.45 0.80 1.13 0.80 0.79 0.81 0.80 0.80 0.87 0.95 0.92 0.84 0.89 1.05 1.18 1.26 1.40 1.45 1.50 1.59 1.80 2.01 2.21 2.43 2.50 2.49 2.55 2.60 2.46 2.27 2.27 2.35 2.36 2.29 2.35 2.36 2.23 2.25 2.48 2.50 2.56 2.87 3.02 2.90

GEFSSGP_prec_meanprecacc_360.txt.gz
Total_Precipitation_Accumulation
0.14 0.33 0.79 1.27 1.93 2.61 2.33 1.58 0.90 0.69 0.61 0.69 0.77 0.77 0.87 1.00 1.43 2.20 2.28 2.04 1.75 1.98 2.42 3.07 3.37 2.93 2.64 2.58 2.51 2.55 2.68 2.65 2.66 2.71 2.76 2.86 3.11 3.31 3.45 3.42 3.16 3.01 2.94 2.84 3.01 3.14 3.03 2.95 2.81
0.26 0.57 1.02 1.52 2.34 2.58 2.02 1.70 0.88 0.65 0.61 0.63 0.68 0.72 0.78 0.72 0.72 1.22 2.00 1.85 1.58 1.74 2.04 2.57 3.15 2.88 2.52 2.52 2.52 2.63 2.67 2.59 2.58 2.66 2.82 2.99 3.21 3.35 3.30 3.10 2.93 2.91 2.81 2.71 2.77 2.97 2.86 2.62 2.61
0.38 0.72 1.08 1.60 1.70 1.64 1.37 1.11 0.71 0.60 0.57 0.69 0.72 0.69 0.70 0.97 0.95 1.33 1.69 1.51 1.60 1.72 1.97 2.67 3.11 2.97 2.72 2.60 2.64 2.58 2.51 2.48 2.61 2.77 2.96 3.18 3.21 3.27 3.13 2.95 2.80 2.69 2.52 2.55 2.64 2.85 2.78 2.60 2.59
0.45 0.79 1.06 1.18 1.04 0.86 0.72 0.60 0.46 0.55 0.51 0.59 0.70 0.70 0.85 1.00 0.97 1.29 1.48 1.49 1.57 1.79 2.05 2.55 2.89 2.84 2.70 2.52 2.49 2.59 2.63 2.65 2.78 2.77 2.91 3.10 3.11 3.25 3.12 2.81 2.66 2.44 2.25 2.27 2.51 2.78 2.82 2.65 2.57
0.58 0.92 1.19 0.97 0.78 0.67 0.55 0.46 0.42 0.52 0.51 0.62 0.75 0.93 1.21 1.22 1.06 1.34 1.49 1.47 1.49 1.65 1.96 2.21 2.67 2.86 2.76 2.65 2.70 2.78 2.75 2.77 2.80 2.70 2.71 2.72 2.76 2.90 2.77 2.55 2.48 2.32 2.06 2.04 2.47 2.76 2.73 2.49 2.42
0.66 0.99 0.91 0.67 0.61 0.53 0.49 0.39 0.36 0.46 0.54 0.62 0.80 1.11 1.61 1.69 1.44 1.39 1.38 1.28 1.41 1.59 1.81 2.03 2.47 2.76 2.87 2.84 2.94 2.90 2.84 2.88 2.78 2.65 2.57 2.45 2.31 2.46 2.41 2.25 2.33 2.25 2.12 2.27 2.61 2.72 2.55 2.43 2.46
0.77 0.96 0.63 0.47 0.50 0.48 0.43 0.34 0.39 0.39 0.52 0.73 0.91 1.22 1.81 2.19 1.80 1.45 1.42 1.47 1.64 1.66 1.74 2.10 2.41 2.51 2.61 3.00 3.11 3.04 2.96 3.00 2.89 2.77 2.55 2.37 2.16 2.15 2.10 2.14 2.25 2.25 2.35 2.51 2.74 2.76 2.63 2.50 2.65
0.38 0.50 0.46 0.38 0.32 0.39 0.39 0.33 0.35 0.41 0.48 0.65 0.84 1.17 1.83 1.87 1.60 1.52 1.75 1.87 2.06 1.97 1.86 2.04 2.25 2.21 2.23 2.53 2.94 3.01 2.83 2.75 2.77 2.86 2.60 2.55 2.42 2.23 2.18 2.16 2.22 2.34 2.50 2.79 2.94 2.93 2.84 2.64 2.73
0.22 0.36 0.35 0.26 0.23 0.30 0.29 0.29 0.34 0.36 0.42 0.63 0.81 1.07 1.42 1.37 1.33 1.40 2.01 2.22 2.29 2.15 2.13 2.07 1.99 1.97 2.06 2.17 2.57 2.81 2.89 2.85 2.90 3.03 2.81 2.73 2.74 2.43 2.48 2.45 2.66 2.78 2.79 3.12 3.35 3.40 3.13 3.00 3.19
0.19 0.23 0.17 0.13 0.13 0.20 0.25 0.31 0.33 0.38 0.60 0.98 1.29 1.32 1.27 1.28 1.42 1.64 2.12 2.13 2.30 2.37 2.19 2.19 2.12 1.98 1.88 1.98 2.37 2.71 2.53 2.66 2.99 3.14 2.92 2.84 3.04 3.07 2.54 2.81 3.32 3.53 3.53 3.73 3.94 3.90 3.33 2.96 2.93
0.14 0.16 0.10 0.11 0.14 0.18 0.22 0.30 0.35 0.42 0.88 1.34 1.79 1.63 1.42 1.51 1.64 1.90 2.32 2.57 2.56 2.69 2.47 2.41 2.27 2.02 1.80 2.06 2.05 2.35 2.58 2.84 3.03 2.95 2.87 2.87 2.71 2.64 2.64 3.06 3.65 3.82 3.76 3.87 4.07 3.83 3.24 3.26 3.42
0.10 0.12 0.12 0.14 0.17 0.19 0.26 0.32 0.41 0.52 0.81 0.93 1.16 1.43 1.55 1.72 1.95 2.23 2.41 2.65 2.69 2.79 2.67 2.75 2.47 2.34 2.42 2.32 2.05 1.99 2.07 2.30 2.65 2.94 2.87 2.95 3.22 3.21 3.15 3.40 3.48 3.72 3.91 4.27 3.98 3.96 3.76 3.71 3.56
0.08 0.10 0.14 0.14 0.16 0.20 0.25 0.29 0.42 0.58 0.64 0.70 1.01 1.36 1.70 1.84 2.13 2.44 2.55 2.83 2.75 2.74 2.78 2.90 2.75 2.60 2.69 2.52 2.37 2.16 2.22 2.19 2.32 2.60 2.88 2.98 3.38 3.68 3.63 3.58 3.57 3.52 3.46 3.63 3.73 3.60 3.92 4.09 3.63
0.07 0.10 0.12 0.13 0.17 0.21 0.25 0.31 0.43 0.62 0.72 0.89 1.13 1.37 1.68 2.00 2.21 2.38 2.80 2.97 3.05 3.00 3.09 2.93 2.91 2.87 2.85 2.81 2.82 2.74 2.44 2.52 2.49 2.60 2.69 2.89 3.37 3.83 3.91 3.76 3.62 3.37 3.26 3.34 3.49 3.61 4.06 4.04 3.82
0.10 0.17 0.17 0.19 0.24 0.23 0.30 0.54 0.67 0.80 0.83 0.97 1.17 1.28 1.62 2.15 2.39 2.43 2.78 2.94 2.90 3.33 3.44 3.46 3.39 3.51 3.46 3.31 3.22 3.01 2.82 2.69 2.74 2.97 3.09 3.06 3.24 3.61 3.58 3.35 3.21 3.17 3.26 3.45 3.45 3.65 3.83 3.53 3.57
0.13 0.26 0.33 0.32 0.29 0.25 0.38 0.83 0.88 0.95 0.93 1.10 1.26 1.40 1.69 2.01 2.33 2.48 2.76 2.97 3.07 3.50 3.79 4.09 3.91 3.94 3.78 3.78 3.76 3.46 3.20 3.05 2.94 2.98 3.09 2.92 2.91 3.07 3.37 3.15 3.02 3.31 3.33 3.46 3.76 3.92 3.82 3.81 3.86
0.18 0.24 0.29 0.31 0.26 0.26 0.36 0.70 0.83 0.98 1.18 1.35 1.49 1.62 1.66 1.95 2.26 2.60 2.85 3.19 3.48 3.86 4.25 4.70 4.62 4.39 4.10 4.15 4.13 3.90 3.73 3.43 3.06 2.91 2.89 2.78 2.77 2.92 3.28 3.31 3.41 3.42 3.55 3.62 3.42 3.87 3.94 3.91 3.96
0.17 0.20 0.25 0.29 0.25 0.29 0.48 0.72 0.82 1.02 1.30 1.33 1.56 1.71 1.79 1.88 2.33 2.77 2.95 3.33 3.80 4.33 4.78 4.76 4.74 4.91 4.78 4.62 4.50 4.18 3.69 3.25 3.09 3.06 2.91 2.79 2.88 3.00 3.42 3.30 3.30 3.34 3.58 3.71 3.65 3.82 3.88 3.64 3.65
0.11 0.16 0.22 0.27 0.24 0.28 0.46 0.75 1.06 1.22 1.52 1.43 1.43 1.58 1.70 1.82 2.12 2.56 2.85 3.37 3.96 4.40 4.83 5.04 5.12 5.01 4.86 4.52 4.22 3.97 3.72 3.51 3.24 3.04 2.96 2.91 2.83 3.04 3.51 3.27 3.56 3.49 3.54 3.60 3.64 3.81 3.73 3.45 3.63
0.12 0.18 0.22 0.26 0.27 0.35 0.55 0.81 1.16 1.24 1.33 1.31 1.21 1.27 1.46 1.80 2.05 2.56 2.88 3.09 3.51 4.03 4.51 4.84 5.04 4.93 4.55 4.22 4.08 4.00 3.96 3.56 3.29 3.26 3.42 3.23 3.22 3.25 3.29 3.54 3.50 3.58 3.74 3.71 3.69 3.83 3.60 3.24 3.53
0.16 0.19 0.23 0.24 0.26 0.46 0.63 1.14 1.39 1.30 1.30 1.28 1.22 1.27 1.45 1.89 2.33 2.61 2.82 2.95 3.19 3.59 3.90 4.01 4.21 4.19 4.03 4.08 4.12 4.10 4.13 3.73 3.67 3.69 3.71 3.48 3.48 3.50 3.51 3.50 3.46 3.51 3.31 3.42 3.51 3.52 3.54 3.47 3.39
0.22 0.21 0.18 0.21 0.31 0.58 0.70 1.43 1.83 1.62 1.50 1.56 1.55 1.46 1.71 1.99 2.03 2.22 2.50 2.77 2.94 3.18 3.50 3.71 3.78 3.75 3.68 3.81 3.88 3.79 3.61 3.50 3.67 3.95 3.90 3.63 3.42 3.31 3.14 3.09 3.27 3.31 3.08 3.19 2.85 3.04 3.24 3.24 3.09
0.19 0.19 0.21 0.26 0.35 0.58 0.75 1.17 1.73 1.65 1.82 1.78 1.59 1.65 1.92 1.88 1.76 1.88 2.08 2.40 2.52 2.84 3.12 3.32 3.59 3.68 3.63 3.72 3.72 3.76 3.59 3.58 3.64 3.66 3.72 3.52 3.34 3.03 2.71 2.75 3.00 2.98 2.90 2.82 2.73 2.94 2.79 2.71 2.79
0.15 0.20 0.31 0.42 0.59 1.02 0.82 0.95 1.55 1.63 1.53 1.53 1.50 1.45 1.64 1.57 1.54 1.76 1.94 2.23 2.39 2.51 2.65 2.76 2.98 3.25 3.43 3.48 3.45 3.51 3.47 3.46 3.42 3.42 3.33 3.11 2.96 2.77 2.47 2.37 2.60 2.75 2.81 2.79 2.75 2.84 2.73 2.76 2.87
0.16 0.30 0.78 1.20 1.39 1.35 0.72 0.85 1.38 1.27 1.18 1.20 1.31 1.33 1.36 1.30 1.28 1.51 1.67 1.84 2.05 2.16 2.27 2.42 2.71 3.06 3.14 3.10 3.06 3.18 3.27 3.28 3.22 3.21 3.07 2.85 2.63 2.41 2.36 2.39 2.55 2.60 2.68 2.56 2.62 2.70 2.71 2.87 2.93
0.19 0.27 0.73 1.08 1.21 1.13 0.89 1.30 1.71 1.27 1.09 1.13 1.23 1.22 1.17 1.09 1.05 1.21 1.48 1.79 1.94 1.92 1.99 2.14 2.45 2.72 2.76 2.70 2.84 3.12 3.19 3.23 3.16 3.20 2.88 2.63 2.42 2.38 2.49 2.50 2.38 2.34 2.43 2.31 2.61 2.54 2.58 2.82 2.90
0.19 0.22 0.32 0.53 0.64 0.92 1.15 1.45 1.45 0.99 0.92 0.98 1.05 1.08 1.18 1.12 1.04 1.14 1.24 1.45 1.57 1.63 1.70 1.85 2.28 2.57 2.66 2.74 2.87 3.01 3.13 3.10 3.06 2.97 2.70 2.44 2.46 2.42 2.58 2.57 2.49 2.38 2.44 2.56 2.84 2.75 2.67 2.90 2.89
0.18 0.23 0.28 0.42 0.70 1.06 1.25 1.54 1.67 1.18 0.95 0.71 0.69 0.79 0.85 0.86 0.87 0.95 1.01 1.13 1.24 1.41 1.68 1.87 2.05 2.37 2.48 2.58 2.75 2.78 3.02 2.92 2.77 2.74 2.52 2.29 2.20 2.31 2.55 2.71 2.60 2.46 2.47 2.64 2.82 2.78 2.93 3.12 3.16
0.21 0.23 0.27 0.33 0.47 0.82 1.37 1.56 1.19 0.96 0.82 0.76 0.72 0.81 0.85 0.81 0.78 0.83 0.96 1.10 1.20 1.35 1.57 1.71 1.76 1.99 2.18 2.32 2.52 2.51 2.52 2.60 2.70 2.55 2.28 2.22 2.26 2.39 2.46 2.57 2.55 2.46 2.48 2.61 2.68 2.64 2.97 3.13 3.15
0.21 0.20 0.24 0.35 0.36 0.48 0.86 1.20 0.83 0.82 0.86 0.82 0.81 0.87 0.95 0.92 0.84 0.89 1.06 1.19 1.27 1.42 1.48 1.53 1.60 1.81 2.02 2.22 2.44 2.51 2.51 2.57 2.62 2.48 2.29 2.29 2.37 2.39 2.34 2.40 2.39 2.26 2.29 2.51 2.53 2.58 2.90 3.06 2.93

GEFSSGP_prec_meanprecacc_366.txt.gz
Total_Precipitation_Accumulation
0.16 0.36 0.86 1.36 2.03 2.76 2.48 1.66 0.96 0.72 0.63 0.70 0.77 0.77 0.88 1.01 1.45 2.23 2.31 2.10 1.87 2.13 2.53 3.17 3.44 3.02 2.75 2.69 2.58 2.60 2.74 2.71 2.72 2.77 2.83 2.94 3.18 3.37 3.53 3.45 3.20 3.07 3.02 2.92 3.09 3.23 3.13 3.03 2.88
0.28 0.64 1.15 1.65 2.47 2.73 2.17 1.78 0.92 0.68 0.62 0.64 0.69 0.74 0.79 0.73 0.73 1.25 2.04 1.93 1.71 1.87 2.16 2.69 3.25 2.97 2.63 2.60 2.58 2.67 2.71 2.66 2.66 2.74 2.90 3.07 3.27 3.42 3.37 3.15 2.97 2.96 2.89 2.79 2.87 3.09 2.95 2.69 2.67
0.45 0.85 1.19 1.74 1.88 1.74 1.46 1.17 0.73 0.62 0.58 0.70 0.73 0.69 0.71 0.98 0.96 1.35 1.72 1.57 1.70 1.82 2.10 2.81 3.23 3.06 2.80 2.66 2.71 2.62 2.55 2.54 2.68 2.85 3.04 3.30 3.29 3.32 3.18 2.99 2.84 2.73 2.59 2.62 2.74 2.94 2.85 2.66 2.65
0.51 0.89 1.19 1.33 1.17 0.92 0.76 0.61 0.47 0.56 0.51 0.60 0.70 0.70 0.85 1.01 0.98 1.31 1.51 1.53 1.64 1.86 2.16 2.72 3.03 2.96 2.79 2.60 2.57 2.64 2.67 2.71 2.86 2.84 2.98 3.22 3.23 3.34 3.19 2.86 2.71 2.50 2.32 2.34 2.56 2.83 2.87 2.71 2.64
0.67 1.08 1.34 1.09 0.86 0.71 0.57 0.48 0.43 0.53 0.51 0.62 0.75 0.93 1.22 1.23 1.07 1.35 1.51 1.50 1.53 1.69 2.04 2.36 2.84 3.01 2.88 2.75 2.81 2.85 2.82 2.85 2.89 2.78 2.79 2.81 2.86 2.98 2.85 2.62 2.52 2.36 2.10 2.09 2.52 2.81 2.78 2.54 2.48
0.82 1.20 1.07 0.81 0.69 0.57 0.51 0.41 0.37 0.46 0.54 0.63 0.81 1.12 1.63 1.72 1.46 1.41 1.41 1.31 1.43 1.63 1.89 2.15 2.66 2.90 2.99 2.98 3.08 3.03 2.94 2.96 2.84 2.72 2.66 2.53 2.38 2.54 2.49 2.31 2.39 2.31 2.16 2.31 2.66 2.77 2.61 2.49 2.54
1.04 1.18 0.77 0.57 0.55 0.52 0.45 0.36 0.40 0.40 0.52 0.74 0.91 1.23 1.84 2.22 1.82 1.46 1.44 1.49 1.67 1.72 1.83 2.20 2.58 2.62 2.72 3.15 3.25 3.17 3.08 3.09 2.98 2.85 2.64 2.43 2.24 2.23 2.18 2.21 2.31 2.30 2.39 2.56 2.80 2.83 2.70 2.59 2.77
0.55 0.65 0.58 0.46 0.37 0.44 0.41 0.34 0.36 0.41 0.48 0.65 0.85 1.18 1.85 1.89 1.62 1.54 1.76 1.88 2.09 2.04 1.95 2.11 2.33 2.31 2.39 2.71 3.10 3.13 2.94 2.85 2.86 2.93 2.67 2.61 2.48 2.30 2.25 2.23 2.28 2.40 2.56 2.84 2.99 2.99 2.92 2.77 2.90
0.37 0.56 0.47 0.30 0.28 0.34 0.31 0.31 0.35 0.37 0.43 0.64 0.82 1.08 1.42 1.38 1.34 1.41 2.02 2.23 2.31 2.22 2.20 2.14 2.06 2.08 2.24 2.37 2.73 2.92 2.99 2.95 2.99 3.11 2.89 2.78 2.79 2.48 2.53 2.50 2.72 2.87 2.86 3.18 3.41 3.46 3.21 3.16 3.40
0.26 0.31 0.21 0.15 0.17 0.23 0.27 0.33 0.34 0.40 0.62 0.99 1.31 1.34 1.28 1.29 1.43 1.65 2.12 2.14 2.31 2.41 2.25 2.26 2.22 2.10 2.00 2.12 2.50 2.80 2.60 2.74 3.09 3.25 3.01 2.89 3.08 3.11 2.57 2.85 3.38 3.61 3.60 3.80 4.01 3.97 3.41 3.11 3.15
0.18 0.18 0.15 0.14 0.15 0.20 0.24 0.32 0.36 0.43 0.90 1.37 1.81 1.67 1.44 1.52 1.64 1.90 2.33 2.58 2.57 2.71 2.50 2.46 2.34 2.09 1.86 2.12 2.12 2.41 2.64 2.95 3.18 3.04 2.92 2.90 2.74 2.67 2.67 3.11 3.69 3.86 3.82 3.94 4.18 3.91 3.32 3.37 3.56
0.12 0.13 0.15 0.16 0.18 0.21 0.29 0.34 0.43 0.54 0.83 0.95 1.19 1.45 1.56 1.73 1.96 2.23 2.42 2.67 2.70 2.79 2.69 2.78 2.51 2.41 2.48 2.35 2.10 2.05 2.16 2.43 2.75 3.01 2.91 2.98 3.24 3.23 3.16 3.43 3.51 3.76 3.94 4.33 4.06 4.04 3.85 3.79 3.66
0.09 0.11 0.14 0.16 0.18 0.23 0.29 0.31 0.44 0.60 0.66 0.72 1.03 1.39 1.73 1.86 2.15 2.46 2.56 2.85 2.78 2.76 2.80 2.92 2.80 2.68 2.78 2.64 2.51 2.28 2.31 2.30 2.41 2.66 2.92 3.01 3.40 3.71 3.66 3.62 3.58 3.53 3.48 3.69 3.82 3.69 3.99 4.15 3.71
0.08 0.11 0.13 0.15 0.19 0.30 0.33 0.34 0.46 0.65 0.74 0.92 1.16 1.44 1.73 2.03 2.24 2.40 2.83 2.99 3.08 3.02 3.11 2.95 2.95 2.95 2.97 3.03 3.08 2.95 2.55 2.60 2.56 2.66 2.75 2.93 3.39 3.86 3.96 3.80 3.64 3.40 3.29 3.38 3.55 3.68 4.12 4.10 3.88
0.11 0.17 0.19 0.20 0.27 0.31 0.36 0.58 0.71 0.83 0.86 1.00 1.24 1.38 1.66 2.18 2.42 2.45 2.79 2.97 2.94 3.37 3.46 3.47 3.42 3.57 3.56 3.49 3.45 3.17 2.90 2.73 2.78 3.02 3.15 3.09 3.26 3.66 3.63 3.39 3.24 3.21 3.31 3.51 3.50 3.71 3.88 3.58 3.62
0.15 0.29 0.35 0.33 0.32 0.28 0.41 0.87 0.92 1.03 0.98 1.13 1.33 1.48 1.71 2.04 2.36 2.51 2.80 3.00 3.11 3.54 3.81 4.10 3.93 3.98 3.83 3.87 3.87 3.55 3.26 3.09 2.97 3.03 3.15 2.97 2.96 3.13 3.41 3.18 3.05 3.34 3.37 3.51 3.80 3.98 3.87 3.89 3.92
0.22 0.29 0.33 0.33 0.29 0.29 0.39 0.73 0.87 1.07 1.25 1.40 1.52 1.67 1.69 1.97 2.29 2.66 2.90 3.22 3.51 3.88 4.26 4.71 4.63 4.41 4.13 4.18 4.16 3.95 3.78 3.46 3.08 2.96 2.95 2.86 2.84 2.96 3.30 3.34 3.43 3.47 3.60 3.67 3.46 3.92 3.98 3.95 3.99
0.19 0.24 0.28 0.33 0.29 0.33 0.54 0.76 0.86 1.06 1.36 1.38 1.59 1.75 1.82 1.90 2.36 2.81 2.97 3.35 3.81 4.34 4.79 4.76 4.75 4.93 4.80 4.65 4.53 4.21 3.72 3.28 3.12 3.09 2.96 2.87 2.96 3.03 3.46 3.34 3.34 3.40 3.65 3.77 3.70 3.87 3.92 3.67 3.68
0.13 0.19 0.25 0.32 0.29 0.32 0.53 0.81 1.11 1.28 1.58 1.48 1.49 1.63 1.77 1.89 2.19 2.61 2.88 3.39 3.97 4.41 4.83 5.05 5.13 5.02 4.87 4.53 4.24 4.01 3.76 3.54 3.26 3.06 2.98 2.94 2.86 3.08 3.56 3.33 3.61 3.54 3.61 3.66 3.69 3.85 3.76 3.47 3.65
0.13 0.19 0.24 0.29 0.29 0.37 0.60 0.87 1.21 1.31 1.39 1.37 1.29 1.34 1.54 1.84 2.10 2.60 2.89 3.10 3.52 4.04 4.51 4.85 5.04 4.94 4.56 4.23 4.09 4.03 3.99 3.58 3.31 3.28 3.44 3.25 3.24 3.28 3.33 3.59 3.55 3.64 3.81 3.77 3.74 3.87 3.64 3.28 3.56
0.17 0.20 0.23 0.24 0.28 0.48 0.67 1.19 1.44 1.34 1.35 1.32 1.29 1.32 1.48 1.92 2.37 2.64 2.83 2.96 3.20 3.60 3.91 4.02 4.21 4.19 4.04 4.09 4.12 4.11 4.15 3.74 3.68 3.70 3.73 3.50 3.50 3.52 3.54 3.53 3.48 3.54 3.35 3.46 3.55 3.56 3.58 3.51 3.42
0.23 0.21 0.18 0.21 0.32 0.62 0.75 1.50 1.88 1.65 1.53 1.59 1.59 1.50 1.75 2.03 2.07 2.27 2.54 2.81 2.96 3.19 3.50 3.72 3.79 3.75 3.68 3.81 3.88 3.80 3.62 3.51 3.68 3.96 3.91 3.65 3.44 3.32 3.16 3.10 3.29 3.34 3.12 3.22 2.88 3.07 3.27 3.28 3.13
0.19 0.19 0.21 0.27 0.37 0.61 0.79 1.21 1.78 1.70 1.86 1.83 1.63 1.68 1.97 1.92 1.79 1.93 2.14 2.44 2.56 2.86 3.13 3.33 3.59 3.68 3.64 3.72 3.72 3.77 3.60 3.59 3.65 3.67 3.73 3.53 3.36 3.05 2.72 2.77 3.02 3.00 2.93 2.86 2.75 2.97 2.83 2.78 2.86
0.15 0.20 0.31 0.42 0.60 1.05 0.87 1.00 1.63 1.69 1.58 1.57 1.54 1.48 1.68 1.61 1.57 1.81 2.00 2.27 2.43 2.54 2.67 2.77 2.99 3.25 3.44 3.49 3.46 3.52 3.48 3.46 3.42 3.43 3.34 3.12 2.97 2.78 2.48 2.39 2.62 2.76 2.83 2.81 2.78 2.88 2.79 2.85 2.95
0.16 0.31 0.79 1.22 1.42 1.39 0.77 0.89 1.42 1.31 1.23 1.24 1.34 1.36 1.39 1.33 1.31 1.54 1.70 1.88 2.09 2.19 2.29 2.43 2.72 3.07 3.15 3.11 3.07 3.19 3.27 3.29 3.23 3.22 3.08 2.86 2.63 2.42 2.37 2.40 2.56 2.62 2.70 2.58 2.66 2.75 2.75 2.92 2.98
0.19 0.27 0.76 1.12 1.26 1.19 0.93 1.36 1.77 1.31 1.15 1.18 1.27 1.25 1.21 1.15 1.08 1.23 1.50 1.82 1.98 1.95 2.01 2.16 2.47 2.73 2.77 2.70 2.85 3.12 3.20 3.24 3.17 3.21 2.89 2.64 2.43 2.38 2.50 2.51 2.39 2.36 2.46 2.34 2.65 2.58 2.61 2.86 2.94
0.20 0.22 0.34 0.56 0.68 0.97 1.20 1.53 1.52 1.05 0.99 1.05 1.12 1.12 1.22 1.17 1.09 1.16 1.26 1.48 1.60 1.65 1.72 1.86 2.29 2.58 2.67 2.75 2.88 3.02 3.15 3.11 3.08 2.98 2.71 2.45 2.48 2.44 2.59 2.58 2.51 2.40 2.47 2.59 2.87 2.78 2.70 2.93 2.91
0.19 0.23 0.30 0.45 0.74 1.11 1.32 1.66 1.79 1.25 1.02 0.79 0.77 0.85 0.88 0.89 0.92 0.99 1.03 1.15 1.25 1.42 1.69 1.88 2.06 2.40 2.50 2.60 2.76 2.80 3.04 2.95 2.79 2.76 2.54 2.31 2.22 2.32 2.57 2.73 2.63 2.48 2.50 2.67 2.86 2.82 2.94 3.13 3.17
0.22 0.25 0.29 0.36 0.50 0.85 1.43 1.68 1.29 1.01 0.86 0.82 0.77 0.85 0.88 0.84 0.81 0.86 0.98 1.11 1.21 1.36 1.58 1.72 1.77 2.01 2.21 2.34 2.53 2.53 2.54 2.63 2.72 2.56 2.30 2.24 2.28 2.40 2.48 2.59 2.58 2.49 2.52 2.66 2.73 2.68 3.00 3.15 3.17
0.22 0.22 0.26 0.37 0.39 0.51 0.90 1.26 0.86 0.83 0.89 0.88 0.85 0.91 0.99 0.94 0.86 0.91 1.07 1.19 1.27 1.43 1.49 1.54 1.61 1.83 2.04 2.24 2.47 2.54 2.55 2.61 2.66 2.50 2.31 2.32 2.39 2.41 2.36 2.42 2.42 2.30 2.34 2.56 2.58 2.63 2.98 3.19 3.00

GEFSSGP_prec_meanprecacc_372.txt.gz
Total_Precipitation_Accumulation
0.17 0.41 0.92 1.43 2.09 2.81 2.52 1.71 0.99 0.74 0.66 0.72 0.79 0.79 0.89 1.02 1.47 2.24 2.33 2.13 1.91 2.15 2.57 3.24 3.53 3.08 2.79 2.75 2.63 2.65 2.80 2.80 2.83 2.86 2.90 3.00 3.24 3.42 3.58 3.50 3.26 3.14 3.09 2.98 3.15 3.30 3.21 3.13 2.98
0.29 0.68 1.21 1.72 2.54 2.77 2.20 1.80 0.95 0.72 0.65 0.67 0.70 0.75 0.80 0.73 0.75 1.27 2.07 1.97 1.74 1.90 2.21 2.78 3.36 3.06 2.71 2.70 2.65 2.74 2.79 2.75 2.78 2.88 3.01 3.16 3.35 3.49 3.44 3.20 3.03 3.03 2.97 2.87 2.95 3.19 3.10 2.85 2.83
0.46 0.87 1.22 1.77 1.91 1.78 1.50 1.20 0.79 0.66 0.60 0.71 0.74 0.70 0.71 0.99 0.98 1.39 1.78 1.64 1.74 1.86 2.15 2.91 3.35 3.18 2.94 2.80 2.82 2.71 2.64 2.65 2.88 3.12 3.23 3.42 3.41 3.42 3.26 3.05 2.89 2.80 2.66 2.70 2.85 3.10 2.99 2.76 2.75
0.53 0.91 1.21 1.36 1.20 0.95 0.79 0.66 0.52 0.59 0.53 0.61 0.71 0.70 0.86 1.02 1.01 1.35 1.56 1.59 1.68 1.90 2.20 2.80 3.14 3.10 2.96 2.72 2.67 2.76 2.81 2.88 3.08 3.20 3.26 3.36 3.33 3.41 3.25 2.91 2.75 2.55 2.39 2.41 2.64 2.89 2.92 2.77 2.71
0.69 1.10 1.36 1.12 0.89 0.74 0.60 0.51 0.47 0.56 0.53 0.64 0.76 0.94 1.24 1.25 1.10 1.38 1.54 1.53 1.56 1.73 2.07 2.41 2.95 3.16 3.02 2.86 2.90 2.95 2.96 2.99 3.04 3.02 2.96 2.93 2.95 3.07 2.93 2.69 2.56 2.40 2.16 2.14 2.58 2.85 2.83 2.61 2.57
0.84 1.23 1.10 0.86 0.74 0.61 0.56 0.46 0.43 0.51 0.56 0.63 0.81 1.12 1.65 1.75 1.49 1.42 1.42 1.33 1.46 1.67 1.92 2.19 2.75 3.05 3.12 3.10 3.21 3.15 3.05 3.07 2.97 2.83 2.76 2.63 2.47 2.63 2.57 2.40 2.45 2.38 2.22 2.36 2.72 2.82 2.66 2.55 2.62
1.08 1.23 0.83 0.62 0.59 0.57 0.50 0.39 0.43 0.43 0.55 0.75 0.92 1.24 1.86 2.24 1.84 1.47 1.45 1.52 1.72 1.78 1.88 2.24 2.64 2.73 2.83 3.26 3.38 3.31 3.20 3.20 3.09 2.94 2.74 2.53 2.34 2.32 2.26 2.29 2.39 2.38 2.45 2.62 2.86 2.90 2.77 2.65 2.83
0.60 0.71 0.64 0.50 0.40 0.46 0.43 0.36 0.39 0.45 0.52 0.67 0.86 1.19 1.88 1.92 1.64 1.56 1.80 1.94 2.16 2.13 2.01 2.15 2.40 2.39 2.48 2.84 3.21 3.25 3.09 2.98 2.97 3.03 2.80 2.72 2.57 2.38 2.32 2.31 2.37 2.50 2.65 2.92 3.06 3.06 2.98 2.84 2.97
0.40 0.59 0.50 0.33 0.31 0.37 0.34 0.34 0.37 0.39 0.44 0.65 0.83 1.09 1.44 1.40 1.37 1.46 2.07 2.28 2.37 2.29 2.27 2.18 2.15 2.16 2.37 2.54 2.85 3.04 3.13 3.11 3.14 3.25 3.03 2.90 2.88 2.55 2.58 2.56 2.81 2.96 2.95 3.26 3.48 3.53 3.29 3.25 3.52
0.29 0.34 0.22 0.16 0.18 0.25 0.30 0.36 0.37 0.43 0.65 1.01 1.32 1.35 1.29 1.31 1.47 1.70 2.18 2.19 2.37 2.49 2.34 2.32 2.29 2.19 2.18 2.35 2.67 2.94 2.72 2.85 3.20 3.33 3.11 2.96 3.13 3.15 2.60 2.91 3.47 3.68 3.66 3.86 4.08 4.05 3.49 3.21 3.28
0.20 0.20 0.16 0.14 0.16 0.21 0.26 0.34 0.39 0.47 0.93 1.39 1.82 1.68 1.46 1.53 1.67 1.95 2.38 2.61 2.61 2.77 2.59 2.54 2.41 2.20 2.00 2.26 2.26 2.52 2.71 3.01 3.26 3.11 2.99 2.95 2.77 2.70 2.70 3.14 3.76 3.92 3.86 4.00 4.24 4.00 3.39 3.46 3.70
0.12 0.13 0.15 0.17 0.19 0.22 0.32 0.37 0.45 0.56 0.86 0.98 1.20 1.46 1.60 1.79 2.01 2.28 2.46 2.70 2.73 2.83 2.75 2.85 2.61 2.54 2.57 2.41 2.14 2.10 2.19 2.49 2.83 3.07 2.97 3.00 3.25 3.25 3.19 3.45 3.56 3.79 3.97 4.37 4.11 4.11 3.92 3.90 3.78
0.10 0.11 0.15 0.16 0.19 0.24 0.32 0.34 0.47 0.63 0.68 0.74 1.05 1.41 1.80 1.96 2.22 2.53 2.62 2.91 2.81 2.79 2.85 3.00 2.90 2.78 2.86 2.70 2.56 2.31 2.35 2.37 2.51 2.73 2.99 3.04 3.42 3.72 3.68 3.64 3.60 3.55 3.50 3.72 3.87 3.78 4.09 4.27 3.85
0.09 0.11 0.13 0.16 0.19 0.30 0.34 0.36 0.49 0.67 0.76 0.94 1.18 1.45 1.75 2.06 2.25 2.42 2.85 3.01 3.10 3.05 3.15 3.04 3.05 3.02 3.05 3.11 3.13 2.99 2.61 2.68 2.64 2.73 2.83 2.98 3.44 3.91 4.00 3.82 3.66 3.42 3.31 3.41 3.58 3.73 4.20 4.21 4.01
0.12 0.18 0.19 0.21 0.27 0.32 0.37 0.59 0.72 0.85 0.88 1.01 1.25 1.39 1.67 2.19 2.43 2.46 2.80 2.98 2.95 3.40 3.51 3.56 3.50 3.66 3.69 3.60 3.50 3.22 2.97 2.80 2.84 3.08 3.20 3.13 3.31 3.71 3.69 3.45 3.29 3.24 3.33 3.54 3.54 3.76 3.93 3.66 3.74
0.16 0.29 0.36 0.34 0.32 0.29 0.42 0.88 0.93 1.04 0.99 1.15 1.35 1.49 1.72 2.04 2.37 2.51 2.80 3.02 3.14 3.56 3.84 4.17 4.00 4.07 3.97 4.02 3.96 3.61 3.32 3.13 3.01 3.07 3.19 3.02 3.02 3.19 3.48 3.23 3.10 3.40 3.43 3.56 3.86 4.05 3.95 3.97 4.02
0.23 0.29 0.33 0.33 0.30 0.31 0.41 0.74 0.87 1.08 1.27 1.42 1.53 1.68 1.69 1.98 2.30 2.67 2.91 3.24 3.52 3.89 4.28 4.76 4.69 4.48 4.22 4.27 4.23 4.00 3.81 3.49 3.10 2.98 2.98 2.91 2.90 3.02 3.35 3.38 3.48 3.52 3.66 3.74 3.54 4.01 4.07 4.02 4.06
0.20 0.25 0.29 0.34 0.30 0.35 0.56 0.77 0.87 1.08 1.37 1.39 1.61 1.77 1.83 1.91 2.37 2.82 2.99 3.36 3.82 4.35 4.81 4.79 4.79 4.98 4.85 4.68 4.56 4.23 3.74 3.31 3.14 3.10 2.97 2.90 2.99 3.07 3.50 3.39 3.39 3.45 3.70 3.82 3.76 3.93 3.98 3.72 3.72
0.13 0.20 0.26 0.33 0.29 0.33 0.54 0.83 1.13 1.30 1.59 1.49 1.51 1.65 1.78 1.90 2.20 2.62 2.89 3.39 3.98 4.43 4.85 5.07 5.16 5.07 4.92 4.56 4.27 4.03 3.79 3.56 3.28 3.08 2.99 2.95 2.89 3.11 3.60 3.35 3.64 3.57 3.63 3.70 3.73 3.90 3.81 3.52 3.70
0.13 0.19 0.24 0.29 0.29 0.38 0.61 0.88 1.22 1.33 1.41 1.39 1.31 1.36 1.56 1.85 2.11 2.60 2.90 3.11 3.52 4.04 4.52 4.85 5.06 4.98 4.60 4.26 4.12 4.04 4.00 3.60 3.32 3.30 3.45 3.26 3.26 3.31 3.35 3.60 3.57 3.66 3.83 3.80 3.76 3.90 3.68 3.32 3.60
0.17 0.21 0.24 0.25 0.28 0.48 0.68 1.20 1.45 1.36 1.37 1.35 1.32 1.34 1.50 1.93 2.37 2.64 2.84 2.97 3.21 3.60 3.92 4.02 4.22 4.21 4.06 4.11 4.14 4.12 4.16 3.76 3.70 3.73 3.75 3.52 3.52 3.54 3.56 3.54 3.50 3.55 3.36 3.46 3.56 3.58 3.60 3.54 3.44
0.23 0.22 0.19 0.22 0.33 0.62 0.75 1.50 1.89 1.68 1.56 1.62 1.62 1.52 1.77 2.03 2.08 2.28 2.54 2.81 2.96 3.19 3.51 3.73 3.80 3.76 3.69 3.82 3.89 3.81 3.64 3.53 3.72 4.00 3.93 3.66 3.45 3.33 3.17 3.11 3.30 3.35 3.13 3.23 2.89 3.08 3.29 3.31 3.17
0.20 0.20 0.21 0.27 0.37 0.62 0.79 1.22 1.79 1.72 1.88 1.85 1.66 1.70 1.97 1.92 1.81 1.95 2.15 2.45 2.56 2.87 3.14 3.35 3.60 3.70 3.64 3.73 3.74 3.79 3.63 3.62 3.68 3.69 3.74 3.55 3.37 3.06 2.73 2.77 3.02 3.01 2.94 2.87 2.77 2.99 2.86 2.81 2.91
0.15 0.21 0.31 0.42 0.60 1.06 0.88 1.00 1.64 1.71 1.59 1.58 1.55 1.49 1.68 1.61 1.59 1.82 2.01 2.28 2.44 2.55 2.68 2.79 3.00 3.27 3.45 3.50 3.50 3.61 3.56 3.50 3.45 3.44 3.36 3.14 2.98 2.78 2.48 2.39 2.62 2.77 2.84 2.83 2.81 2.91 2.82 2.88 3.00
0.17 0.31 0.79 1.22 1.42 1.39 0.77 0.89 1.43 1.32 1.24 1.25 1.36 1.37 1.40 1.35 1.33 1.55 1.71 1.89 2.10 2.20 2.30 2.45 2.74 3.09 3.17 3.14 3.12 3.25 3.31 3.31 3.25 3.23 3.09 2.87 2.65 2.43 2.38 2.40 2.57 2.63 2.71 2.60 2.69 2.77 2.78 2.94 3.02
0.20 0.28 0.76 1.12 1.26 1.19 0.93 1.36 1.78 1.32 1.15 1.19 1.29 1.27 1.23 1.17 1.10 1.24 1.51 1.83 1.99 1.96 2.03 2.19 2.50 2.77 2.80 2.73 2.88 3.15 3.23 3.26 3.18 3.23 2.91 2.66 2.45 2.41 2.52 2.52 2.40 2.37 2.47 2.35 2.66 2.60 2.64 2.89 2.98
0.21 0.23 0.34 0.56 0.69 0.97 1.20 1.53 1.53 1.05 1.00 1.06 1.14 1.14 1.25 1.19 1.11 1.18 1.27 1.49 1.61 1.66 1.74 1.91 2.33 2.61 2.71 2.79 2.93 3.07 3.18 3.13 3.09 3.01 2.73 2.48 2.50 2.46 2.61 2.59 2.52 2.41 2.47 2.60 2.88 2.80 2.73 2.96 2.94
0.20 0.25 0.30 0.45 0.74 1.11 1.32 1.66 1.80 1.25 1.03 0.79 0.78 0.86 0.90 0.92 0.94 1.00 1.04 1.15 1.26 1.43 1.71 1.91 2.09 2.42 2.54 2.64 2.83 2.85 3.08 2.98 2.81 2.78 2.56 2.33 2.24 2.34 2.58 2.74 2.64 2.49 2.51 2.68 2.88 2.84 2.98 3.16 3.20
0.23 0.25 0.30 0.37 0.50 0.85 1.44 1.68 1.29 1.01 0.87 0.83 0.78 0.86 0.90 0.88 0.84 0.87 0.99 1.12 1.22 1.37 1.60 1.74 1.79 2.02 2.23 2.37 2.58 2.61 2.63 2.70 2.75 2.58 2.32 2.26 2.31 2.43 2.50 2.61 2.60 2.51 2.54 2.67 2.74 2.70 3.03 3.18 3.21
0.24 0.23 0.27 0.38 0.39 0.51 0.90 1.26 0.86 0.84 0.90 0.89 0.86 0.93 1.02 0.99 0.94 0.97 1.11 1.23 1.28 1.43 1.50 1.55 1.63 1.84 2.07 2.31 2.57 2.72 2.73 2.69 2.68 2.53 2.34 2.34 2.42 2.44 2.39 2.45 2.45 2.32 2.36 2.58 2.59 2.65 3.01 3.23 3.05

GEFSSGP_prec_meanprecacc_378.txt.gz
Total_Precipitation_Accumulation
0.18 0.43 0.95 1.45 2.12 2.84 2.54 1.74 1.00 0.77 0.68 0.73 0.80 0.80 0.91 1.06 1.52 2.28 2.34 2.14 1.92 2.17 2.62 3.34 3.61 3.15 2.86 2.82 2.70 2.71 2.88 2.90 2.94 3.00 3.06 3.13 3.34 3.48 3.65 3.57 3.33 3.24 3.20 3.09 3.25 3.40 3.31 3.22 3.09
0.30 0.69 1.23 1.74 2.56 2.80 2.23 1.83 0.98 0.74 0.67 0.68 0.71 0.77 0.82 0.76 0.80 1.30 2.09 1.98 1.76 1.92 2.24 2.86 3.44 3.13 2.78 2.77 2.74 2.83 2.89 2.86 2.92 3.06 3.18 3.29 3.45 3.57 3.51 3.29 3.15 3.15 3.09 2.99 3.07 3.31 3.23 2.97 2.97
0.46 0.88 1.24 1.79 1.93 1.81 1.53 1.23 0.82 0.70 0.62 0.73 0.76 0.72 0.74 1.03 1.02 1.43 1.81 1.65 1.76 1.88 2.17 2.98 3.42 3.24 3.02 2.89 2.93 2.83 2.78 2.82 3.08 3.35 3.42 3.56 3.53 3.55 3.38 3.17 3.05 2.92 2.76 2.83 2.97 3.21 3.08 2.88 2.90
0.53 0.92 1.23 1.38 1.21 0.97 0.82 0.68 0.54 0.62 0.55 0.62 0.73 0.73 0.88 1.06 1.05 1.38 1.58 1.60 1.69 1.92 2.22 2.84 3.21 3.16 3.03 2.81 2.79 2.93 3.10 3.22 3.39 3.49 3.48 3.51 3.46 3.51 3.34 3.00 2.85 2.63 2.46 2.48 2.71 2.97 3.00 2.84 2.81
0.69 1.11 1.37 1.13 0.91 0.76 0.62 0.53 0.49 0.58 0.55 0.65 0.77 0.96 1.26 1.29 1.14 1.40 1.56 1.55 1.57 1.75 2.10 2.44 3.00 3.23 3.10 2.95 3.02 3.11 3.16 3.19 3.25 3.24 3.09 3.01 3.03 3.14 3.01 2.79 2.66 2.47 2.21 2.19 2.63 2.91 2.90 2.68 2.64
0.85 1.24 1.11 0.89 0.77 0.63 0.57 0.47 0.44 0.52 0.57 0.64 0.82 1.14 1.69 1.80 1.53 1.44 1.43 1.35 1.48 1.69 1.95 2.23 2.80 3.13 3.22 3.19 3.31 3.29 3.21 3.28 3.21 3.03 2.88 2.71 2.56 2.74 2.69 2.53 2.57 2.46 2.30 2.43 2.78 2.88 2.71 2.61 2.68
1.08 1.24 0.84 0.64 0.61 0.58 0.51 0.40 0.45 0.45 0.56 0.77 0.94 1.27 1.89 2.29 1.88 1.49 1.47 1.54 1.75 1.80 1.91 2.32 2.73 2.83 2.92 3.35 3.47 3.43 3.35 3.37 3.26 3.08 2.84 2.61 2.44 2.44 2.38 2.42 2.53 2.49 2.54 2.70 2.93 2.97 2.84 2.74 2.92
0.60 0.72 0.65 0.51 0.41 0.47 0.45 0.38 0.42 0.48 0.55 0.69 0.88 1.24 1.93 1.97 1.70 1.60 1.82 1.96 2.19 2.15 2.06 2.23 2.48 2.47 2.59 2.98 3.37 3.40 3.23 3.13 3.11 3.16 2.91 2.85 2.71 2.49 2.42 2.40 2.49 2.61 2.75 3.01 3.15 3.14 3.07 2.93 3.07
0.41 0.60 0.52 0.34 0.32 0.38 0.35 0.36 0.41 0.42 0.48 0.68 0.84 1.12 1.47 1.45 1.43 1.49 2.09 2.30 2.39 2.31 2.31 2.26 2.21 2.23 2.51 2.67 2.98 3.20 3.30 3.30 3.33 3.42 3.21 3.08 3.02 2.68 2.67 2.65 2.93 3.10 3.05 3.35 3.57 3.62 3.38 3.34 3.63
0.29 0.34 0.23 0.17 0.20 0.26 0.31 0.37 0.39 0.47 0.71 1.05 1.33 1.37 1.31 1.33 1.49 1.72 2.19 2.20 2.39 2.52 2.37 2.38 2.37 2.28 2.33 2.48 2.81 3.11 2.87 3.04 3.39 3.49 3.31 3.14 3.26 3.25 2.68 2.99 3.58 3.78 3.75 3.94 4.16 4.14 3.60 3.33 3.40
0.20 0.20 0.16 0.14 0.17 0.22 0.27 0.35 0.41 0.51 0.97 1.41 1.83 1.69 1.47 1.55 1.68 1.97 2.40 2.63 2.64 2.82 2.63 2.59 2.48 2.29 2.15 2.41 2.39 2.63 2.80 3.10 3.35 3.19 3.09 3.05 2.87 2.80 2.78 3.22 3.86 4.00 3.93 4.06 4.30 4.07 3.48 3.56 3.80
0.12 0.13 0.15 0.17 0.19 0.23 0.33 0.39 0.47 0.57 0.86 0.98 1.21 1.47 1.61 1.79 2.02 2.30 2.49 2.73 2.76 2.87 2.81 2.93 2.69 2.65 2.70 2.52 2.22 2.15 2.24 2.54 2.90 3.14 3.04 3.07 3.32 3.35 3.29 3.54 3.63 3.84 4.02 4.43 4.17 4.21 4.02 3.99 3.86
0.10 0.11 0.15 0.16 0.19 0.25 0.32 0.35 0.48 0.63 0.68 0.74 1.06 1.42 1.81 1.97 2.23 2.54 2.64 2.93 2.85 2.83 2.90 3.07 2.99 2.85 2.90 2.75 2.60 2.34 2.39 2.42 2.58 2.81 3.05 3.09 3.47 3.78 3.75 3.70 3.66 3.60 3.54 3.77 3.95 3.86 4.17 4.37 3.94
0.09 0.11 0.13 0.16 0.20 0.31 0.35 0.36 0.49 0.67 0.76 0.94 1.19 1.46 1.76 2.06 2.26 2.42 2.85 3.02 3.12 3.07 3.18 3.07 3.08 3.05 3.08 3.14 3.16 3.02 2.65 2.73 2.70 2.79 2.89 3.03 3.48 3.95 4.05 3.88 3.71 3.47 3.35 3.45 3.63 3.79 4.28 4.31 4.11
0.12 0.18 0.19 0.21 0.27 0.32 0.37 0.59 0.72 0.85 0.89 1.02 1.25 1.40 1.67 2.19 2.43 2.46 2.80 2.98 2.96 3.42 3.54 3.59 3.53 3.70 3.72 3.63 3.52 3.25 3.01 2.84 2.88 3.13 3.25 3.17 3.36 3.78 3.75 3.51 3.36 3.29 3.38 3.59 3.59 3.81 4.00 3.75 3.83
0.16 0.29 0.36 0.34 0.33 0.29 0.42 0.88 0.93 1.05 1.00 1.15 1.35 1.49 1.72 2.04 2.37 2.51 2.80 3.02 3.14 3.57 3.87 4.20 4.02 4.10 4.01 4.05 3.99 3.64 3.36 3.17 3.05 3.10 3.23 3.05 3.07 3.26 3.58 3.30 3.15 3.44 3.46 3.61 3.92 4.11 4.01 4.05 4.12
0.23 0.29 0.34 0.33 0.30 0.31 0.41 0.74 0.87 1.08 1.27 1.42 1.53 1.68 1.70 1.98 2.30 2.67 2.92 3.25 3.53 3.90 4.31 4.79 4.73 4.53 4.26 4.31 4.27 4.04 3.85 3.53 3.14 3.01 3.00 2.94 2.94 3.10 3.45 3.42 3.52 3.57 3.70 3.79 3.61 4.07 4.12 4.08 4.14
0.20 0.25 0.29 0.34 0.30 0.35 0.56 0.77 0.87 1.08 1.37 1.39 1.61 1.77 1.83 1.91 2.37 2.82 2.99 3.36 3.82 4.37 4.84 4.84 4.83 5.02 4.89 4.72 4.59 4.27 3.78 3.34 3.16 3.12 2.99 2.93 3.03 3.12 3.54 3.43 3.45 3.50 3.75 3.88 3.82 3.98 4.02 3.77 3.79
0.13 0.20 0.27 0.34 0.30 0.33 0.54 0.83 1.13 1.30 1.60 1.50 1.51 1.65 1.79 1.91 2.20 2.62 2.89 3.40 3.99 4.45 4.88 5.11 5.20 5.10 4.94 4.58 4.29 4.06 3.82 3.60 3.32 3.11 3.01 2.97 2.92 3.16 3.66 3.40 3.68 3.61 3.67 3.74 3.77 3.93 3.85 3.57 3.75
0.14 0.20 0.25 0.30 0.29 0.38 0.61 0.88 1.22 1.33 1.41 1.39 1.31 1.36 1.56 1.86 2.11 2.60 2.90 3.12 3.53 4.05 4.54 4.88 5.10 5.00 4.62 4.28 4.14 4.07 4.04 3.65 3.37 3.33 3.49 3.28 3.28 3.33 3.37 3.64 3.61 3.70 3.88 3.84 3.79 3.93 3.71 3.35 3.64
0.17 0.21 0.24 0.25 0.28 0.49 0.68 1.20 1.45 1.36 1.38 1.35 1.32 1.34 1.50 1.94 2.38 2.64 2.84 2.98 3.21 3.61 3.92 4.04 4.25 4.24 4.08 4.13 4.16 4.15 4.20 3.80 3.73 3.75 3.78 3.54 3.54 3.55 3.57 3.57 3.53 3.59 3.40 3.50 3.59 3.61 3.64 3.58 3.49
0.23 0.22 0.19 0.22 0.33 0.62 0.75 1.50 1.89 1.68 1.57 1.63 1.62 1.53 1.77 2.03 2.08 2.28 2.55 2.81 2.97 3.20 3.52 3.75 3.82 3.78 3.71 3.84 3.92 3.85 3.67 3.57 3.74 4.03 3.96 3.69 3.48 3.35 3.18 3.14 3.33 3.38 3.15 3.26 2.91 3.11 3.33 3.34 3.21
0.20 0.20 0.21 0.27 0.37 0.62 0.79 1.22 1.80 1.72 1.88 1.85 1.66 1.70 1.97 1.92 1.81 1.95 2.15 2.45 2.57 2.88 3.16 3.37 3.62 3.71 3.66 3.76 3.77 3.82 3.65 3.64 3.70 3.70 3.77 3.58 3.40 3.08 2.74 2.79 3.05 3.04 2.97 2.90 2.80 3.03 2.90 2.84 2.95
0.16 0.21 0.31 0.42 0.61 1.07 0.88 1.00 1.64 1.71 1.59 1.58 1.56 1.50 1.69 1.62 1.59 1.82 2.01 2.28 2.44 2.56 2.69 2.80 3.01 3.27 3.47 3.53 3.53 3.63 3.58 3.51 3.46 3.46 3.37 3.16 3.00 2.80 2.49 2.40 2.64 2.81 2.88 2.87 2.84 2.94 2.86 2.92 3.04
0.17 0.32 0.80 1.22 1.43 1.40 0.77 0.89 1.43 1.32 1.24 1.25 1.36 1.37 1.40 1.35 1.33 1.56 1.72 1.90 2.11 2.21 2.30 2.46 2.75 3.10 3.19 3.16 3.15 3.28 3.33 3.32 3.26 3.25 3.11 2.89 2.67 2.45 2.40 2.42 2.59 2.66 2.75 2.64 2.71 2.80 2.80 2.97 3.06
0.21 0.28 0.77 1.13 1.26 1.19 0.93 1.36 1.78 1.32 1.15 1.20 1.29 1.28 1.24 1.18 1.12 1.26 1.52 1.84 2.00 1.97 2.03 2.20 2.50 2.77 2.82 2.75 2.91 3.19 3.25 3.28 3.20 3.24 2.93 2.68 2.47 2.43 2.53 2.54 2.42 2.39 2.49 2.37 2.69 2.62 2.67 2.91 3.01
0.21 0.23 0.34 0.56 0.69 0.98 1.20 1.53 1.53 1.05 1.00 1.06 1.14 1.14 1.26 1.21 1.13 1.21 1.29 1.49 1.61 1.66 1.74 1.91 2.33 2.62 2.72 2.80 2.97 3.12 3.22 3.16 3.12 3.02 2.74 2.49 2.51 2.47 2.62 2.60 2.53 2.42 2.49 2.62 2.92 2.83 2.76 2.99 2.97
0.20 0.25 0.31 0.46 0.76 1.12 1.32 1.66 1.80 1.26 1.04 0.80 0.78 0.86 0.91 0.93 0.96 1.03 1.06 1.16 1.26 1.44 1.71 1.91 2.09 2.43 2.55 2.66 2.86 2.89 3.12 3.01 2.84 2.79 2.57 2.34 2.25 2.35 2.59 2.75 2.65 2.50 2.52 2.70 2.91 2.87 3.01 3.20 3.24
0.24 0.26 0.30 0.38 0.51 0.86 1.44 1.69 1.29 1.02 0.88 0.83 0.78 0.87 0.91 0.90 0.86 0.88 1.00 1.12 1.22 1.37 1.60 1.75 1.80 2.03 2.23 2.40 2.61 2.63 2.64 2.72 2.76 2.59 2.33 2.27 2.32 2.44 2.52 2.63 2.62 2.53 2.57 2.71 2.77 2.73 3.06 3.22 3.27
0.24 0.23 0.28 0.39 0.40 0.52 0.90 1.27 0.86 0.84 0.90 0.90 0.86 0.93 1.02 1.00 0.95 0.98 1.12 1.23 1.29 1.44 1.51 1.56 1.64 1.85 2.08 2.33 2.59 2.75 2.75 2.70 2.69 2.53 2.34 2.35 2.43 2.46 2.40 2.47 2.47 2.35 2.40 2.62 2.63 2.68 3.05 3.27 3.09

GEFSSGP_prec_meanprecacc_384.txt.gz
Total_Precipitation_Accumulation
0.18 0.44 0.96 1.48 2.21 2.99 2.63 1.77 1.03 0.79 0.70 0.74 0.80 0.80 0.92 1.09 1.58 2.35 2.41 2.22 2.01 2.28 2.74 3.44 3.66 3.18 2.89 2.86 2.75 2.76 2.93 2.95 3.00 3.07 3.12 3.20 3.40 3.52 3.68 3.60 3.37 3.30 3.26 3.15 3.32 3.49 3.42 3.32 3.18
0.32 0.70 1.24 1.81 2.72 2.93 2.28 1.87 1.02 0.77 0.68 0.69 0.71 0.77 0.83 0.78 0.83 1.35 2.12 2.02 1.82 1.97 2.29 2.90 3.48 3.16 2.81 2.81 2.79 2.88 2.99 2.97 3.00 3.15 3.26 3.37 3.53 3.65 3.57 3.35 3.23 3.23 3.16 3.07 3.19 3.45 3.36 3.09 3.09
0.47 0.89 1.27 1.89 2.05 1.91 1.60 1.27 0.85 0.72 0.63 0.74 0.77 0.72 0.75 1.04 1.04 1.44 1.83 1.67 1.78 1.91 2.20 3.01 3.44 3.27 3.04 2.92 2.99 2.90 2.91 2.99 3.17 3.43 3.51 3.66 3.64 3.66 3.48 3.26 3.17 3.01 2.83 2.90 3.10 3.34 3.20 2.98 3.03
0.55 0.94 1.28 1.46 1.30 1.02 0.85 0.71 0.56 0.63 0.56 0.63 0.74 0.75 0.89 1.07 1.06 1.40 1.60 1.62 1.71 1.94 2.25 2.87 3.23 3.18 3.08 2.89 2.89 3.03 3.26 3.42 3.54 3.61 3.59 3.64 3.60 3.63 3.42 3.07 2.95 2.73 2.53 2.53 2.76 3.02 3.08 2.95 2.97
0.71 1.15 1.46 1.21 0.96 0.79 0.63 0.54 0.50 0.59 0.56 0.67 0.78 0.97 1.28 1.31 1.16 1.43 1.59 1.58 1.61 1.78 2.12 2.46 3.02 3.26 3.17 3.04 3.11 3.21 3.28 3.37 3.44 3.40 3.20 3.10 3.14 3.24 3.09 2.84 2.73 2.56 2.30 2.25 2.68 2.96 2.97 2.77 2.75
0.90 1.31 1.19 0.95 0.81 0.67 0.60 0.47 0.45 0.53 0.57 0.65 0.84 1.16 1.72 1.85 1.59 1.49 1.47 1.38 1.53 1.74 1.99 2.26 2.83 3.16 3.28 3.25 3.37 3.40 3.33 3.39 3.34 3.15 2.96 2.80 2.67 2.84 2.78 2.60 2.66 2.56 2.37 2.50 2.85 2.93 2.76 2.67 2.75
1.12 1.30 0.88 0.67 0.65 0.64 0.54 0.40 0.45 0.47 0.58 0.78 0.95 1.33 1.96 2.37 1.95 1.54 1.51 1.57 1.78 1.84 1.95 2.35 2.76 2.88 2.99 3.42 3.54 3.52 3.46 3.50 3.38 3.20 2.92 2.69 2.54 2.54 2.48 2.51 2.64 2.59 2.61 2.77 3.00 3.01 2.88 2.78 2.96
0.61 0.75 0.67 0.52 0.42 0.50 0.46 0.38 0.42 0.49 0.57 0.71 0.90 1.29 1.98 2.02 1.75 1.65 1.87 2.00 2.23 2.19 2.10 2.27 2.51 2.52 2.66 3.05 3.42 3.46 3.32 3.25 3.25 3.29 3.01 2.94 2.82 2.61 2.52 2.48 2.63 2.75 2.83 3.08 3.20 3.18 3.10 2.96 3.10
0.42 0.63 0.55 0.36 0.33 0.39 0.36 0.38 0.41 0.42 0.49 0.68 0.85 1.13 1.50 1.47 1.46 1.53 2.13 2.35 2.42 2.34 2.36 2.32 2.25 2.29 2.58 2.74 3.05 3.29 3.40 3.42 3.45 3.57 3.33 3.19 3.15 2.81 2.79 2.75 3.06 3.23 3.13 3.41 3.62 3.67 3.44 3.39 3.68
0.31 0.37 0.26 0.19 0.21 0.27 0.32 0.39 0.41 0.48 0.72 1.07 1.34 1.38 1.32 1.33 1.50 1.74 2.21 2.21 2.41 2.54 2.44 2.49 2.43 2.33 2.43 2.59 2.91 3.23 3.01 3.20 3.51 3.63 3.44 3.26 3.38 3.38 2.78 3.10 3.72 3.92 3.83 3.98 4.19 4.18 3.65 3.39 3.49
0.20 0.21 0.17 0.16 0.18 0.23 0.27 0.36 0.41 0.52 0.98 1.43 1.85 1.70 1.47 1.55 1.69 1.99 2.41 2.64 2.65 2.84 2.70 2.71 2.55 2.33 2.22 2.52 2.52 2.78 2.95 3.25 3.47 3.31 3.20 3.16 2.97 2.92 2.90 3.35 4.01 4.13 4.01 4.11 4.33 4.11 3.52 3.64 3.95
0.12 0.13 0.15 0.17 0.20 0.24 0.33 0.39 0.48 0.58 0.87 0.99 1.21 1.47 1.61 1.80 2.03 2.31 2.50 2.75 2.78 2.89 2.87 3.03 2.76 2.70 2.75 2.60 2.34 2.28 2.36 2.65 3.01 3.26 3.15 3.16 3.41 3.45 3.40 3.65 3.74 3.93 4.09 4.49 4.22 4.25 4.06 4.05 3.93
0.10 0.11 0.15 0.16 0.19 0.25 0.33 0.35 0.49 0.63 0.68 0.74 1.06 1.42 1.81 1.98 2.24 2.55 2.65 2.95 2.87 2.85 2.94 3.13 3.04 2.89 2.94 2.79 2.67 2.44 2.52 2.53 2.67 2.91 3.15 3.17 3.55 3.88 3.86 3.81 3.75 3.67 3.60 3.83 4.02 3.92 4.24 4.44 4.02
0.09 0.11 0.14 0.16 0.20 0.31 0.35 0.37 0.50 0.67 0.76 0.94 1.19 1.46 1.76 2.06 2.26 2.43 2.87 3.04 3.15 3.10 3.21 3.11 3.12 3.09 3.12 3.20 3.22 3.09 2.74 2.82 2.78 2.88 2.96 3.10 3.55 4.02 4.13 3.96 3.78 3.54 3.42 3.51 3.70 3.85 4.34 4.37 4.18
0.12 0.18 0.20 0.21 0.29 0.32 0.38 0.60 0.73 0.86 0.89 1.02 1.25 1.40 1.67 2.19 2.43 2.46 2.81 3.00 2.99 3.46 3.58 3.62 3.55 3.73 3.75 3.67 3.57 3.30 3.08 2.90 2.94 3.19 3.31 3.23 3.42 3.83 3.81 3.58 3.42 3.37 3.45 3.67 3.66 3.87 4.05 3.79 3.88
0.16 0.30 0.38 0.34 0.33 0.30 0.43 0.89 0.94 1.05 1.00 1.15 1.35 1.49 1.72 2.04 2.37 2.51 2.81 3.03 3.16 3.61 3.91 4.23 4.05 4.13 4.04 4.08 4.04 3.70 3.41 3.23 3.11 3.17 3.30 3.12 3.11 3.31 3.64 3.36 3.21 3.50 3.54 3.69 4.01 4.18 4.06 4.10 4.18
0.24 0.31 0.35 0.34 0.31 0.31 0.41 0.75 0.89 1.09 1.28 1.42 1.53 1.68 1.70 1.98 2.30 2.67 2.92 3.25 3.53 3.92 4.35 4.84 4.78 4.57 4.30 4.35 4.33 4.10 3.90 3.58 3.19 3.07 3.06 2.99 2.98 3.13 3.47 3.45 3.56 3.62 3.75 3.83 3.65 4.13 4.19 4.15 4.22
0.21 0.25 0.29 0.35 0.31 0.35 0.56 0.77 0.87 1.08 1.37 1.39 1.61 1.77 1.84 1.92 2.37 2.82 2.99 3.36 3.83 4.38 4.86 4.88 4.89 5.08 4.95 4.78 4.66 4.34 3.83 3.39 3.22 3.17 3.04 2.96 3.06 3.15 3.57 3.47 3.50 3.55 3.79 3.92 3.87 4.05 4.11 3.87 3.88
0.14 0.20 0.27 0.34 0.30 0.33 0.54 0.84 1.14 1.30 1.60 1.50 1.52 1.66 1.80 1.91 2.20 2.62 2.89 3.40 4.00 4.46 4.91 5.14 5.25 5.16 5.00 4.64 4.35 4.11 3.87 3.65 3.38 3.15 3.05 3.02 2.96 3.19 3.70 3.44 3.74 3.66 3.71 3.78 3.82 3.99 3.92 3.65 3.83
0.14 0.20 0.25 0.30 0.29 0.38 0.62 0.91 1.23 1.33 1.42 1.39 1.32 1.37 1.57 1.86 2.11 2.60 2.90 3.12 3.53 4.07 4.56 4.91 5.13 5.04 4.66 4.33 4.17 4.10 4.08 3.69 3.40 3.36 3.52 3.32 3.31 3.36 3.42 3.70 3.67 3.77 3.93 3.90 3.85 3.99 3.78 3.42 3.71
0.18 0.21 0.24 0.26 0.28 0.49 0.69 1.24 1.49 1.36 1.38 1.35 1.32 1.34 1.50 1.94 2.38 2.64 2.84 2.98 3.21 3.62 3.95 4.06 4.27 4.26 4.10 4.15 4.18 4.18 4.23 3.84 3.76 3.78 3.80 3.57 3.57 3.58 3.61 3.62 3.57 3.64 3.45 3.55 3.65 3.67 3.72 3.64 3.54
0.23 0.22 0.19 0.22 0.33 0.62 0.75 1.54 1.95 1.69 1.57 1.63 1.62 1.53 1.77 2.03 2.08 2.28 2.55 2.81 2.97 3.21 3.54 3.76 3.83 3.79 3.73 3.86 3.95 3.88 3.70 3.60 3.78 4.06 3.99 3.72 3.50 3.38 3.22 3.17 3.37 3.42 3.18 3.31 2.96 3.17 3.41 3.42 3.27
0.20 0.20 0.21 0.27 0.37 0.63 0.80 1.24 1.83 1.75 1.92 1.87 1.66 1.70 1.97 1.92 1.81 1.95 2.15 2.45 2.57 2.88 3.17 3.37 3.62 3.72 3.69 3.79 3.81 3.86 3.68 3.67 3.73 3.75 3.81 3.62 3.42 3.10 2.75 2.81 3.08 3.08 3.01 2.95 2.85 3.09 2.96 2.91 3.03
0.16 0.21 0.31 0.43 0.62 1.11 0.91 1.02 1.66 1.75 1.65 1.62 1.56 1.50 1.69 1.62 1.59 1.82 2.01 2.28 2.45 2.56 2.71 2.80 3.01 3.29 3.49 3.57 3.57 3.67 3.61 3.54 3.49 3.50 3.41 3.19 3.03 2.82 2.50 2.41 2.67 2.85 2.94 2.92 2.90 3.00 2.92 2.99 3.12
0.17 0.32 0.81 1.25 1.46 1.43 0.80 0.92 1.45 1.34 1.26 1.26 1.36 1.38 1.40 1.35 1.33 1.56 1.72 1.90 2.11 2.21 2.31 2.47 2.76 3.11 3.21 3.20 3.20 3.31 3.36 3.35 3.29 3.28 3.15 2.92 2.69 2.48 2.42 2.44 2.63 2.70 2.80 2.68 2.74 2.84 2.84 3.03 3.12
0.21 0.29 0.79 1.19 1.34 1.26 0.98 1.41 1.83 1.36 1.17 1.20 1.30 1.28 1.25 1.18 1.12 1.26 1.52 1.84 2.00 1.97 2.03 2.21 2.51 2.79 2.84 2.79 2.94 3.21 3.28 3.31 3.23 3.29 2.97 2.72 2.51 2.47 2.57 2.56 2.45 2.42 2.52 2.40 2.72 2.66 2.69 2.94 3.04
0.23 0.25 0.36 0.61 0.75 1.02 1.24 1.56 1.57 1.09 1.01 1.06 1.15 1.15 1.27 1.23 1.14 1.21 1.29 1.50 1.61 1.66 1.74 1.92 2.35 2.64 2.74 2.83 2.99 3.14 3.25 3.19 3.14 3.04 2.76 2.51 2.54 2.49 2.65 2.62 2.55 2.43 2.50 2.63 2.94 2.86 2.79 3.02 3.00
0.21 0.26 0.32 0.50 0.82 1.18 1.36 1.70 1.85 1.30 1.05 0.81 0.79 0.88 0.93 0.96 0.96 1.03 1.06 1.16 1.26 1.45 1.72 1.92 2.11 2.45 2.57 2.68 2.88 2.91 3.14 3.03 2.86 2.81 2.59 2.36 2.27 2.37 2.62 2.77 2.66 2.51 2.54 2.72 2.94 2.91 3.05 3.24 3.29
0.24 0.26 0.31 0.40 0.54 0.91 1.50 1.74 1.33 1.06 0.93 0.86 0.80 0.89 0.94 0.93 0.87 0.89 1.01 1.13 1.23 1.39 1.63 1.78 1.83 2.06 2.26 2.42 2.64 2.65 2.66 2.73 2.77 2.60 2.34 2.30 2.36 2.48 2.55 2.67 2.65 2.56 2.60 2.75 2.82 2.79 3.12 3.28 3.33
0.24 0.24 0.28 0.41 0.43 0.54 0.94 1.32 0.89 0.88 0.95 0.92 0.88 0.95 1.04 1.01 0.96 0.99 1.13 1.25 1.34 1.52 1.58 1.61 1.68 1.89 2.11 2.35 2.60 2.76 2.76 2.71 2.70 2.55 2.36 2.37 2.46 2.48 2.43 2.51 2.51 2.39 2.46 2.68 2.68 2.74 3.10 3.33 3.16